                ,  0.671,  0.819,  0.966,  1.114,  1.262,  1.410,  1.558,  1.705,  1.853,  2.001,  2.149,  2.297,  2.445,  2.592,  2.740,  2.888,  3.036,  3.184,  3.331,  3.479,  3.627,  3.775,  3.923,  4.070,  4.218,  4.366,  4.514,  4.662,  4.809,  4.957,  5.105,  5.253,  5.401,  5.549,  5.696,  5.844,  5.992,  6.140,  6.288,  6.435,  6.583,  6.731,  6.879,  7.027,  7.174,  7.322,  7.470,  7.618,  7.766,  7.914,  8.061,  8.209,  8.357,  8.505,  8.653,  8.800,  8.948,  9.096,  9.244,  9.392,  9.539,  9.687,  9.835
2005/08/22 00:00,  999.0,   -2.7,   -1.7,   -0.9,   -0.5,    0.9,  999.0,    3.7,    4.6,    5.7,    6.1,    6.1,    6.3,    6.9,    6.6,    6.2,    6.5,    5.7,    5.0,    4.7,  999.0,    4.5,    4.8,    5.6,    6.0,    6.9,    6.8,    7.5,    7.5,    8.0,    7.7,    9.3,   12.2,   12.2,   13.1,   13.5,   10.0,    9.8,    9.7,   10.5,   11.1,  999.0,  999.0,  999.0,  999.0,  999.0,  999.0,  999.0,  999.0,  999.0,  999.0,  999.0,  999.0,  999.0,  999.0,  999.0,  999.0,  999.0,  999.0,  999.0,  999.0,  999.0,  999.0
2005/08/22 00:10,  999.0,   -2.3,   -1.8,   -0.5,   -0.8,    0.7,    2.0,    2.3,    4.7,    6.1,    5.7,    5.2,    6.0,    5.8,    5.9,    5.8,    5.8,    6.3,    5.2,    5.0,    4.6,    5.0,    6.1,    6.2,    6.3,    6.8,    7.5,    7.1,    7.2,    8.1,    8.7,  999.0,  999.0,  999.0,  999.0,  999.0,  999.0,  999.0,   27.3,   26.5,   31.0,  999.0,   30.0,  999.0,   31.4,   30.8,  999.0,  999.0,  999.0,  999.0,  999.0,  999.0,  999.0,  999.0,  999.0,  999.0,  999.0,  999.0,  999.0,  999.0,  999.0,  999.0,  999.0
2005/08/22 00:20,  999.0,   -2.4,   -1.9,   -1.0,   -0.3,  999.0,    2.5,    2.8,  999.0,    6.7,  999.0,    4.0,    6.3,    6.0,    4.8,    5.9,    6.3,    4.9,    5.0,    5.2,    4.9,    5.3,    6.0,    6.4,    6.6,    7.3,    7.9,    8.6,    9.6,   10.5,    9.2,    9.2,   11.3,   14.1,   13.5,   14.1,  999.0,  999.0,  999.0,  999.0,  999.0,  999.0,  999.0,  999.0,  999.0,  999.0,  999.0,  999.0,  999.0,  999.0,  999.0,  999.0,  999.0,  999.0,  999.0,  999.0,  999.0,  999.0,  999.0,  999.0,  999.0,  999.0,  999.0
2005/08/22 00:30,  999.0,   -2.6,   -2.2,   -0.4,   -0.4,    1.2,    2.2,    3.4,    6.3,    7.9,    7.8,    8.4,    7.4,    6.9,    6.6,    6.9,    7.0,    6.4,    5.8,    4.9,    5.2,    5.3,    6.1,    6.7,    7.3,    7.4,    7.6,    8.3,    9.8,   10.7,    9.5,    8.7,   10.8,   12.7,   12.4,   12.4,   13.0,   13.2,  999.0,  999.0,  999.0,  999.0,  999.0,  999.0,  999.0,  999.0,  999.0,   55.2,   55.1,   55.4,  999.0,   55.2,  999.0,  999.0,  999.0,  999.0,  999.0,  999.0,  999.0,  999.0,  999.0,  999.0,  999.0
2005/08/22 00:40,  999.0,   -2.4,   -2.2,   -0.7,   -0.1,    1.3,  999.0,    4.1,    5.5,    7.3,    8.0,    8.3,    7.6,    6.7,    6.4,    6.8,    7.4,    6.8,    6.9,    5.3,    4.8,    5.5,    6.5,    7.1,    7.4,    7.8,    7.7,    8.2,    8.8,    8.2,    7.5,    7.2,    9.4,   11.8,   13.1,   12.6,   12.2,  999.0,  999.0,  999.0,  999.0,  999.0,  999.0,  999.0,  999.0,  999.0,  999.0,  999.0,  999.0,  999.0,  999.0,  999.0,  999.0,  999.0,  999.0,  999.0,  999.0,  999.0,  999.0,  999.0,  999.0,  999.0,  999.0
2005/08/22 00:50,  999.0,   -2.9,   -1.0,   -0.5,   -0.1,    1.9,    2.8,  999.0,  999.0,  999.0,    5.8,    7.4,    7.4,    6.8,    7.2,    7.9,    8.3,    7.9,    7.0,    5.4,    6.1,    6.6,    6.7,    7.2,    8.0,    8.0,    8.9,    8.4,    5.0,    6.7,    8.0,    8.2,   10.2,   12.0,   12.4,   12.1,   10.9,  999.0,  999.0,  999.0,  999.0,  999.0,  999.0,  999.0,  999.0,   54.9,   55.2,   55.1,   55.1,   55.4,   55.4,  999.0,  999.0,  999.0,  999.0,  999.0,  999.0,  999.0,  999.0,  999.0,  999.0,  999.0,  999.0
2005/08/22 01:00,  999.0,   -3.3,   -1.0,   -0.1,   -0.1,  999.0,  999.0,  999.0,  999.0,    6.8,    7.0,    6.6,    7.7,    6.8,    7.8,    8.3,    7.6,    7.4,    6.3,    6.4,    6.1,    6.0,    6.1,    6.2,    7.5,    7.3,    7.8,    7.4,    6.3,    7.1,    7.5,    8.4,    9.2,   10.4,   10.9,  999.0,   10.4,  999.0,  999.0,  999.0,  999.0,  999.0,  999.0,  999.0,   55.4,   55.3,   55.2,   55.3,   55.4,  999.0,   55.5,  999.0,   54.8,   55.1,  999.0,  999.0,  999.0,  999.0,  999.0,  999.0,  999.0,  999.0,  999.0
2005/08/22 01:10,  999.0,   -2.1,   -0.6,    0.0,    0.3,    1.8,    2.6,  999.0,    3.4,    4.4,    7.0,    7.2,    7.8,    8.0,    7.8,    7.7,    7.8,    7.4,    6.5,    5.9,    6.1,    5.0,    5.6,    5.8,    5.7,    6.3,    7.2,    7.4,    6.9,    7.7,    8.5,    8.9,   10.2,   11.3,   11.4,   10.9,  999.0,  999.0,  999.0,  999.0,  999.0,   55.2,   55.1,   55.1,   55.2,   55.1,   55.0,   55.2,   55.4,   55.3,   55.4,   55.4,  999.0,  999.0,   55.5,  999.0,  999.0,  999.0,  999.0,  999.0,  999.0,  999.0,  999.0
2005/08/22 01:20,  999.0,   -2.1,   -1.4,   -0.5,   -0.2,   -1.4,    3.5,    5.2,    4.0,  999.0,    8.2,    5.8,    7.3,    7.1,    6.8,    6.7,    7.4,    7.4,    7.3,    7.1,    7.1,    6.5,    6.6,    6.5,    6.3,    6.6,    7.0,    7.8,    8.6,    8.5,   10.2,   11.3,  999.0,  999.0,  999.0,   12.1,  999.0,  999.0,  999.0,  999.0,  999.0,  999.0,  999.0,  999.0,  999.0,   55.4,   55.3,  999.0,   55.2,  999.0,   55.7,  999.0,  999.0,  999.0,  999.0,  999.0,  999.0,  999.0,  999.0,  999.0,  999.0,  999.0,  999.0
2005/08/22 01:30,  999.0,   -2.4,   -1.9,   -1.1,   -0.4,    1.1,    2.2,    4.7,    5.7,    6.7,    7.2,    6.5,    7.5,    7.4,    6.7,    5.2,    5.9,    6.7,    7.0,    7.5,    7.9,    8.4,    7.9,    7.2,    7.8,    8.8,    9.5,    9.9,    9.1,    9.5,   11.9,  999.0,  999.0,  999.0,  999.0,  999.0,  999.0,  999.0,  999.0,  999.0,  999.0,  999.0,  999.0,   55.3,   55.1,   55.1,   55.3,   55.2,   55.3,  999.0,  999.0,   55.3,   55.4,  999.0,  999.0,  999.0,  999.0,  999.0,  999.0,  999.0,  999.0,  999.0,  999.0
2005/08/22 01:40,  999.0,   -2.4,   -1.6,   -0.6,   -0.1,  999.0,    2.4,    6.5,    5.6,    7.8,    6.8,    6.2,    7.5,    6.3,    5.4,    5.5,    6.2,    6.9,    6.9,    7.2,    8.1,    8.0,    7.2,    7.5,    7.6,    7.8,    8.4,    9.3,    9.7,   10.6,   11.6,   11.4,   11.5,  999.0,   10.2,  999.0,  999.0,  999.0,  999.0,  999.0,  999.0,  999.0,  999.0,   55.1,  999.0,   55.1,   55.3,   55.2,  999.0,   54.9,   55.4,  999.0,  999.0,  999.0,  999.0,  999.0,  999.0,  999.0,  999.0,  999.0,  999.0,  999.0,  999.0
2005/08/22 01:50,  999.0,   -2.8,   -0.8,   -0.3,   -0.0,  999.0,    5.7,    5.5,    6.7,    7.2,    7.1,    6.3,    6.4,    5.4,    4.3,    3.9,    5.8,    5.8,    7.1,    8.2,    8.5,    8.2,    7.9,    8.1,    8.4,    8.0,    7.7,    8.4,    9.1,    9.7,  999.0,  999.0,   11.7,   11.3,   13.1,  999.0,  999.0,  999.0,  999.0,  999.0,  999.0,  999.0,  999.0,  999.0,   55.0,   55.4,   55.5,   55.2,   55.2,   55.0,  999.0,  999.0,  999.0,  999.0,  999.0,  999.0,  999.0,  999.0,  999.0,  999.0,  999.0,  999.0,  999.0
2005/08/22 02:00,  999.0,   -2.7,   -0.7,  999.0,   -0.6,    2.6,    5.1,    5.6,    6.8,    7.5,    7.3,    6.7,    6.9,    6.3,    6.1,    6.3,    7.0,    7.2,    7.8,    8.4,    8.5,    8.2,    7.6,    8.1,    8.5,    9.3,    9.3,    9.2,    9.4,    8.8,  999.0,   10.5,   11.0,   11.1,   11.4,  999.0,  999.0,  999.0,  999.0,  999.0,  999.0,  999.0,  999.0,  999.0,  999.0,  999.0,  999.0,  999.0,   55.3,   55.3,   55.6,   55.1,   55.4,   55.7,  999.0,  999.0,  999.0,  999.0,  999.0,  999.0,  999.0,  999.0,  999.0
2005/08/22 02:10,  999.0,   -2.1,   -0.7,   -0.1,  999.0,  999.0,    1.2,    3.6,    3.9,    7.0,    7.3,    8.2,    8.5,    7.5,    7.1,    7.1,    7.5,    7.2,    7.2,    7.5,    6.8,    7.1,    7.2,    8.0,    8.5,  999.0,  999.0,  999.0,  999.0,  999.0,  999.0,  999.0,  999.0,  999.0,  999.0,  999.0,  999.0,  999.0,  999.0,  999.0,  999.0,  999.0,  999.0,  999.0,  999.0,  999.0,  999.0,  999.0,  999.0,  999.0,  999.0,  999.0,  999.0,  999.0,  999.0,  999.0,  999.0,  999.0,  999.0,  999.0,  999.0,  999.0,  999.0
2005/08/22 02:20,  999.0,   -2.3,   -0.9,   -0.2,   -0.2,  999.0,    3.6,    4.7,    5.0,    7.4,    7.8,    7.6,    7.8,    8.3,    8.3,    8.1,    8.7,    8.1,    7.7,    7.2,    6.8,    6.6,    7.3,    8.1,    8.5,    9.9,  999.0,  999.0,  999.0,  999.0,  999.0,  999.0,  999.0,  999.0,  999.0,  999.0,  999.0,  999.0,   55.3,   55.2,   55.2,   55.2,   55.2,   55.3,   55.3,   55.2,   55.3,   55.3,   55.3,   55.3,  999.0,  999.0,  999.0,  999.0,  999.0,  999.0,  999.0,  999.0,  999.0,  999.0,  999.0,  999.0,  999.0
2005/08/22 02:30,  999.0,   -2.7,   -1.0,   -0.4,    0.4,    3.1,    4.7,    5.5,    6.7,    7.9,    7.3,    6.8,    6.6,    6.9,    7.5,    7.6,    7.4,    8.1,    7.1,    7.6,    7.7,    7.7,    8.6,    9.1,    8.3,  999.0,  999.0,  999.0,  999.0,  999.0,  999.0,  999.0,  999.0,  999.0,  999.0,  999.0,  999.0,   55.0,   55.1,   55.1,   55.1,   55.1,   55.1,   55.3,   55.3,   55.1,   55.4,   55.2,   55.2,   55.4,  999.0,  999.0,  999.0,  999.0,  999.0,  999.0,  999.0,  999.0,  999.0,  999.0,  999.0,  999.0,  999.0
2005/08/22 02:40,  999.0,   -2.0,   -0.6,   -0.0,    0.6,    4.0,    4.3,    5.7,    6.6,    8.0,    6.7,    8.3,    7.4,    6.7,    6.5,    6.5,    6.0,    7.0,    7.1,    7.2,    7.3,    8.0,    8.9,    9.5,    9.4,  999.0,  999.0,  999.0,  999.0,  999.0,  999.0,  999.0,  999.0,  999.0,  999.0,  999.0,  999.0,   55.2,   55.1,   55.1,   55.1,   55.3,   55.2,   55.1,   55.1,   55.3,   55.1,   55.5,   55.3,   55.3,   55.3,   55.4,   56.1,  999.0,  999.0,  999.0,  999.0,  999.0,  999.0,  999.0,  999.0,  999.0,  999.0
2005/08/22 02:50,  999.0,   -1.9,   -0.7,    0.1,   -0.0,    4.4,    4.0,    4.8,    5.3,    6.4,    6.2,    7.0,    7.0,    6.2,    6.1,    5.9,    5.9,    6.4,    6.9,    6.9,    6.9,    7.7,    8.4,    8.9,   10.4,    9.9,  999.0,  999.0,  999.0,  999.0,  999.0,  999.0,  999.0,   55.1,   55.1,   55.1,   55.1,   55.1,   55.1,   55.1,   55.2,   55.1,   55.1,   55.3,   55.2,   55.1,   55.1,   55.3,   55.3,   55.5,  999.0,  999.0,  999.0,  999.0,  999.0,  999.0,  999.0,  999.0,  999.0,  999.0,  999.0,  999.0,  999.0
2005/08/22 03:00,  999.0,   -1.9,   -1.3,   -0.2,   -0.3,    4.2,  999.0,    5.4,    6.4,    6.6,    6.1,    6.9,    6.8,    6.4,    6.1,    5.1,    4.4,    5.9,    6.4,    6.0,    7.1,    8.0,    8.4,    9.2,  999.0,  999.0,  999.0,  999.0,  999.0,  999.0,  999.0,  999.0,  999.0,  999.0,  999.0,  999.0,  999.0,   55.2,   55.2,   55.2,   55.2,   55.2,   55.3,   55.3,   55.3,   55.3,   55.3,   55.3,   55.4,   55.4,   55.5,   55.7,   55.6,   55.2,  999.0,  999.0,  999.0,  999.0,  999.0,  999.0,  999.0,  999.0,  999.0
2005/08/22 03:10,  999.0,   -1.7,   -1.4,   -0.2,    0.1,    3.8,    4.3,    5.6,    6.4,    7.4,    6.4,    6.2,    6.5,    6.2,    5.8,    5.3,    5.0,    5.5,    5.6,    5.6,    6.6,    7.9,    8.6,    9.5,  999.0,  999.0,  999.0,  999.0,  999.0,  999.0,  999.0,  999.0,  999.0,  999.0,  999.0,   55.0,   55.1,   55.2,   55.1,   55.1,   55.1,   55.1,   55.2,   55.2,   55.1,   55.2,   55.3,   55.3,   55.3,   55.2,  999.0,   55.2,  999.0,  999.0,  999.0,  999.0,  999.0,  999.0,  999.0,  999.0,  999.0,  999.0,  999.0
2005/08/22 03:20,  999.0,   -1.8,   -0.6,   -0.1,    0.2,    2.9,    4.3,    6.2,    7.5,    7.3,    7.4,    6.6,    6.3,    6.2,    5.3,  999.0,    5.1,    5.8,    5.4,  999.0,    6.9,    7.8,    8.3,    8.9,    9.4,  999.0,  999.0,  999.0,  999.0,  999.0,  999.0,  999.0,  999.0,  999.0,  999.0,  999.0,  999.0,  999.0,   55.1,   55.2,   55.1,   55.1,   55.2,   55.3,   55.2,   55.2,   55.3,   55.2,   55.3,   55.2,   55.4,   55.3,  999.0,   55.5,  999.0,  999.0,  999.0,  999.0,  999.0,  999.0,  999.0,  999.0,  999.0
2005/08/22 03:30,  999.0,   -2.2,   -1.1,   -0.2,    0.5,    3.4,    5.6,    6.0,    6.0,    6.6,    6.6,  999.0,    5.2,    5.0,    5.1,    5.8,    5.4,    5.2,    5.6,    5.9,    6.1,    7.5,    8.3,    8.9,    9.7,  999.0,    9.0,    9.6,   10.2,  999.0,  999.0,  999.0,  999.0,  999.0,  999.0,  999.0,  999.0,  999.0,   55.0,   55.1,   55.1,   55.2,   55.3,   55.2,   55.3,   55.2,   55.5,   55.2,   55.3,   55.1,  999.0,  999.0,  999.0,  999.0,  999.0,  999.0,  999.0,  999.0,  999.0,  999.0,  999.0,  999.0,  999.0
2005/08/22 03:40,  999.0,   -1.8,   -0.2,    0.2,    0.8,    2.9,    6.0,    6.7,    6.3,    6.0,    6.5,    6.0,    6.0,  999.0,    7.1,    7.2,    6.1,    5.5,    6.2,    6.9,    7.0,    7.8,    8.5,    8.7,  999.0,    8.8,    8.5,  999.0,  999.0,  999.0,  999.0,  999.0,  999.0,  999.0,  999.0,  999.0,  999.0,  999.0,  999.0,  999.0,  999.0,  999.0,  999.0,  999.0,   55.1,   55.3,   55.4,   55.4,   55.3,   55.6,   55.7,  999.0,   55.1,  999.0,  999.0,  999.0,  999.0,  999.0,  999.0,  999.0,  999.0,  999.0,  999.0
2005/08/22 03:50,  999.0,   -1.0,   -2.1,   -2.2,   -2.7,   -5.1,   -5.8,  999.0,   -6.0,   -6.9,    1.1,    1.2,   -7.1,   -7.6,    0.3,   -2.3,   -3.2,  999.0,  999.0,  999.0,  999.0,  999.0,  999.0,  999.0,  999.0,  999.0,  999.0,  999.0,   46.5,   46.3,   46.2,   55.1,   55.1,   48.3,   46.6,  999.0,   55.1,   55.1,   55.2,   41.4,   41.4,   55.2,   44.3,   41.4,   41.4,   55.3,   27.5,   55.2,   27.7,   27.7,   37.0,   36.9,  999.0,  999.0,  999.0,  999.0,  999.0,  999.0,  999.0,  999.0,  999.0,  999.0,  999.0
2005/08/22 04:00,  999.0,   -0.6,   -2.9,   -2.4,   -4.1,   -3.3,   -4.6,   -4.2,   -7.4,   -6.4,   -6.0,   -6.6,   -6.8,   -6.5,   -6.3,   -6.2,   -6.5,   -7.0,   -6.6,   -6.9,   -7.4,   -8.1,   -8.8,  999.0,  999.0,  999.0,  999.0,  999.0,  999.0,  999.0,  999.0,  999.0,  999.0,  999.0,  999.0,  999.0,  999.0,  999.0,  999.0,  999.0,  999.0,  999.0,  999.0,  999.0,    0.1,   -0.0,  999.0,   -0.0,   -0.2,   -0.0,   -0.1,   -0.1,  999.0,  999.0,  999.0,  999.0,  999.0,  999.0,  999.0,  999.0,  999.0,  999.0,  999.0
2005/08/22 04:10,  999.0,   -1.3,   -2.3,   -2.3,   -4.2,   -4.4,   -6.4,   -6.1,   -6.4,   -6.3,   -6.2,   -6.5,   -6.6,   -6.4,   -6.3,   -6.4,   -6.8,   -7.0,   -7.4,   -7.7,   -8.1,   -8.6,   -8.9,   -9.2,   -9.5,   -9.4,  999.0,  999.0,  999.0,  999.0,  999.0,  999.0,  999.0,  999.0,  999.0,  999.0,  999.0,  999.0,  999.0,  999.0,  999.0,  999.0,  999.0,  999.0,  999.0,  999.0,  -27.7,  -13.9,  -13.9,  -13.9,  -18.3,  -37.2,  999.0,  999.0,  999.0,  -55.5,  999.0,  999.0,  999.0,  999.0,  999.0,  999.0,  999.0
2005/08/22 04:20,  999.0,   -1.5,   -2.9,   -2.6,   -2.1,  999.0,   -5.6,   -6.4,   -6.2,   -6.2,   -6.4,   -6.0,   -6.5,   -6.8,   -6.4,   -6.6,   -6.8,   -6.6,   -7.5,   -8.0,   -8.6,   -9.0,   -9.1,   -9.5,  -10.3,   -9.8,   -8.7,   -9.2,  999.0,  -10.7,  999.0,   -8.3,  999.0,  999.0,  999.0,  999.0,  999.0,  999.0,  999.0,  999.0,  999.0,  -55.2,  -55.2,  -55.2,  -55.3,  -55.2,  -55.2,  -55.4,  -55.5,  -55.6,  -55.3,  -55.3,  -55.7,  -55.3,  999.0,  999.0,  999.0,  999.0,  999.0,  999.0,  999.0,  999.0,  999.0
2005/08/22 04:30,  999.0,   -0.9,   -3.6,   -2.6,   -2.5,   -4.7,   -5.7,   -6.5,   -6.7,   -6.7,   -6.9,   -6.4,   -6.2,   -5.9,   -6.1,   -6.6,   -7.4,   -7.3,   -7.8,   -7.9,   -8.0,   -8.5,   -8.8,   -8.8,   -9.6,   -9.9,   -8.9,   -8.7,  999.0,  999.0,  999.0,  999.0,  999.0,  999.0,  999.0,  999.0,  999.0,  999.0,  999.0,  999.0,  -55.3,  -55.3,  -55.2,  -55.3,  -55.2,  -55.2,  999.0,  -55.3,  -55.3,  -55.4,  999.0,  -55.5,  999.0,  999.0,  999.0,  999.0,  999.0,  999.0,  999.0,  999.0,  999.0,  999.0,  999.0
2005/08/22 04:40,  999.0,    1.6,   -0.8,    0.6,    0.7,   -2.3,   -4.6,   -2.1,   -2.4,   -3.7,   -4.1,   -5.3,   -4.8,   -6.3,   -6.5,   -6.5,   -6.6,   -6.4,   -6.9,  999.0,   -7.9,   -8.1,   -8.7,   -8.4,   -9.1,   -9.2,  999.0,   -9.0,  999.0,  999.0,  999.0,  999.0,  999.0,  -32.2,  -33.0,  999.0,  999.0,  999.0,  -55.1,  -55.1,  -55.2,  -55.2,  -55.1,  -55.2,  -55.2,  -55.3,  -55.1,  -55.2,  -55.3,  -55.3,  -55.4,  999.0,  999.0,  999.0,  999.0,  999.0,  999.0,  999.0,  999.0,  999.0,  999.0,  999.0,  999.0
2005/08/22 04:50,  999.0,   -0.8,   -3.0,   -1.5,   -0.8,  999.0,   -5.5,   -6.0,   -4.7,   -6.6,   -6.1,   -6.6,   -6.2,   -6.5,   -6.8,   -6.9,   -6.8,   -6.4,   -6.8,   -7.4,   -7.5,   -7.7,   -8.0,   -8.3,   -9.5,  999.0,  999.0,  999.0,  999.0,  999.0,  999.0,  999.0,  999.0,  999.0,  999.0,  999.0,  999.0,  999.0,  999.0,  999.0,  999.0,  -55.3,  -55.2,  -55.3,  -55.2,  -55.4,  -55.3,  -55.2,  -55.5,  -55.5,  999.0,  -55.5,  999.0,  999.0,  999.0,  999.0,  999.0,  999.0,  999.0,  999.0,  999.0,  999.0,  999.0
2005/08/22 05:00,  999.0,   -2.3,   -2.7,   -1.8,   -2.4,  999.0,  999.0,  999.0,  999.0,   -5.8,   -6.2,   -5.7,   -5.6,   -6.4,   -6.7,   -6.9,   -7.0,   -6.4,   -6.9,   -7.3,   -8.0,   -8.1,   -8.4,   -8.7,  -10.0,   -9.9,   -8.8,   -8.3,   -8.1,   -9.3,   -8.6,   -8.0,   -7.2,  999.0,  999.0,  999.0,  999.0,  999.0,  999.0,  -55.2,  -55.1,  -55.3,  -55.1,  -55.3,  -55.2,  -55.2,  -55.2,  -55.2,  -55.3,  -55.5,  -55.3,  999.0,  -55.4,  999.0,  999.0,  999.0,  999.0,  999.0,  999.0,  999.0,  999.0,  999.0,  999.0
2005/08/22 05:10,  999.0,  999.0,   -1.1,   -2.0,   -1.9,   -3.5,   -4.9,   -5.8,  999.0,   -5.6,   -5.9,   -5.5,   -5.8,   -6.3,   -6.6,   -6.6,   -6.8,   -6.5,   -6.5,   -7.6,   -7.9,   -7.7,   -8.2,   -8.8,   -9.4,  999.0,   -7.7,   -8.2,   -8.4,   -9.8,   -8.5,   -7.5,   -7.8,  999.0,  999.0,  999.0,  999.0,  999.0,  999.0,  999.0,  -55.2,  -55.1,  -55.1,  -55.2,  -55.3,  -55.2,  -55.3,  -55.2,  -55.3,  -55.5,  -55.3,  -55.3,  -55.2,  -54.9,  -55.2,  999.0,  999.0,  999.0,  999.0,  999.0,  999.0,  999.0,  999.0
2005/08/22 05:20,  999.0,    0.8,   -0.8,   -2.1,   -1.4,   -4.4,   -5.3,   -5.2,   -5.1,   -6.0,   -6.0,   -6.1,   -6.1,   -6.4,   -6.6,   -6.7,   -6.6,   -6.9,   -6.3,   -7.0,   -7.4,   -7.5,   -7.7,   -8.2,   -8.8,   -6.7,   -7.3,   -8.3,   -8.4,   -8.7,   -8.4,  999.0,  999.0,  999.0,  999.0,  999.0,  999.0,  -55.0,  -55.0,  -55.2,  -55.1,  -55.2,  -55.3,  -55.3,  -55.1,  -55.2,  -55.3,  -55.2,  -55.2,  999.0,  999.0,  -55.3,  999.0,  -54.9,  999.0,  999.0,  999.0,  999.0,  999.0,  999.0,  999.0,  999.0,  999.0
2005/08/22 05:30,  999.0,    0.8,   -0.5,   -1.4,   -2.5,   -3.3,   -4.9,   -5.8,   -5.5,   -5.6,   -5.7,   -5.9,   -5.8,   -6.2,   -6.5,   -7.0,   -6.7,   -6.2,   -5.9,   -7.0,   -7.1,   -7.5,   -8.3,   -8.5,   -9.0,  999.0,   -7.4,   -7.6,   -7.9,  999.0,  999.0,  999.0,  999.0,  999.0,  999.0,  999.0,  999.0,  999.0,  -55.1,  -55.1,  -55.1,  -55.1,  -55.1,  -55.2,  -55.1,  -55.1,  -55.2,  -55.1,  -55.1,  -55.0,  999.0,  -55.2,  999.0,  999.0,  -54.9,  999.0,  999.0,  999.0,  999.0,  999.0,  999.0,  999.0,  999.0
2005/08/22 05:40,  999.0,   -0.1,  999.0,   -1.3,   -1.3,   -4.1,   -4.6,   -4.6,   -5.1,   -5.0,   -5.6,   -6.0,   -6.5,   -6.4,   -6.7,   -6.8,   -6.4,   -6.0,   -6.0,   -6.3,   -6.7,   -7.1,   -7.6,   -7.7,   -8.6,   -7.9,   -7.2,   -7.0,   -7.1,  999.0,  999.0,  999.0,  999.0,  999.0,  999.0,  999.0,  999.0,  -55.2,  -55.2,  -55.2,  -55.2,  -55.2,  -55.2,  -55.3,  -55.2,  -55.2,  -55.3,  -55.2,  -55.2,  -55.5,  -55.4,  999.0,  -55.3,  -55.6,  999.0,  999.0,  999.0,  999.0,  999.0,  999.0,  999.0,  999.0,  999.0
2005/08/22 05:50,  999.0,   -0.3,  999.0,   -0.6,   -0.5,   -3.8,   -4.1,   -5.3,   -5.6,   -5.7,   -5.8,   -6.0,   -6.7,   -6.7,   -6.8,   -7.0,   -7.2,   -6.3,   -5.8,   -6.3,   -6.6,   -6.7,   -7.6,   -7.4,   -8.7,   -8.5,   -7.1,  999.0,  999.0,  999.0,  999.0,  999.0,  999.0,  999.0,  999.0,  999.0,  999.0,  999.0,  999.0,  -55.1,  -55.1,  -55.1,  -55.2,  -55.1,  -55.2,  -55.2,  -55.2,  -55.2,  -54.7,  -55.5,  -55.1,  -55.2,  999.0,  -55.6,  -55.6,  999.0,  999.0,  999.0,  999.0,  999.0,  999.0,  999.0,  999.0
2005/08/22 06:00,  999.0,  999.0,  999.0,   -1.2,    0.6,   -4.0,   -5.1,   -5.8,   -5.8,   -5.4,   -5.6,   -6.3,   -6.3,   -6.7,   -6.7,   -7.0,   -7.2,   -6.6,   -6.1,   -6.4,   -6.6,   -6.8,   -7.2,   -7.4,   -7.4,   -7.4,   -6.8,   -6.1,  999.0,  999.0,  999.0,  999.0,  999.0,  999.0,  999.0,  999.0,  999.0,  -55.2,  -55.1,  -55.2,  -55.2,  -55.2,  -55.2,  -55.3,  -55.3,  -55.3,  -55.3,  -55.3,  -55.5,  -55.4,  -55.3,  999.0,  -55.3,  999.0,  999.0,  999.0,  999.0,  999.0,  999.0,  999.0,  999.0,  999.0,  999.0
2005/08/22 06:10,  999.0,   -0.6,   -2.6,   -2.4,   -2.1,   -4.0,   -4.6,   -4.8,   -5.2,   -5.7,   -5.7,   -5.7,   -5.5,   -6.4,   -6.7,   -6.7,   -7.0,   -6.6,   -6.4,   -6.1,   -6.5,   -6.7,   -6.8,   -6.9,   -7.0,   -7.6,  999.0,  999.0,  999.0,  999.0,  999.0,  999.0,  999.0,  999.0,  999.0,  999.0,  999.0,  999.0,  999.0,  999.0,  -55.1,  -55.2,  -55.0,  -55.1,  -55.2,  -55.2,  -55.2,  -55.2,  -55.2,  -55.3,  -55.4,  -55.3,  -55.4,  999.0,  999.0,  999.0,  999.0,  999.0,  999.0,  999.0,  999.0,  999.0,  999.0
2005/08/22 06:20,  999.0,   -0.4,   -2.3,   -1.5,   -1.9,   -3.5,   -4.0,   -4.9,   -5.3,   -5.0,   -5.4,   -5.5,   -6.2,   -6.8,   -6.6,   -6.6,   -6.8,   -7.0,   -6.4,   -6.4,   -6.9,   -6.6,   -7.2,   -8.1,   -8.2,   -7.4,   -7.3,  999.0,  999.0,  999.0,  999.0,  999.0,  999.0,  999.0,  999.0,  999.0,  999.0,  999.0,  999.0,  999.0,  999.0,  -55.2,  -55.1,  -55.2,  -55.2,  -55.2,  -55.2,  -55.3,  -55.3,  -55.4,  -55.3,  -55.5,  -55.7,  999.0,  -55.4,  999.0,  999.0,  999.0,  999.0,  999.0,  999.0,  999.0,  999.0
2005/08/22 06:30,  999.0,   -0.3,   -3.1,   -2.6,   -2.3,   -2.7,   -3.5,   -4.6,   -4.9,   -5.0,   -5.1,   -5.3,   -5.9,   -6.4,   -6.6,   -7.1,   -7.3,   -7.4,   -6.5,   -6.5,   -6.6,   -7.2,   -7.8,   -7.1,   -7.2,   -7.0,   -6.5,   -7.0,   -7.4,   -7.5,   -7.8,  999.0,  999.0,  999.0,  999.0,  999.0,  999.0,  999.0,  999.0,  999.0,  999.0,  -55.0,  -55.1,  -55.1,  -55.2,  -55.2,  -55.3,  -55.4,  -55.3,  -55.2,  -55.4,  -55.5,  999.0,  999.0,  999.0,  -55.9,  999.0,  999.0,  999.0,  999.0,  999.0,  999.0,  999.0
2005/08/22 06:40,  999.0,   -0.2,   -2.8,   -2.5,   -2.0,   -2.7,   -3.7,   -4.0,   -4.2,   -4.8,   -5.1,   -5.8,   -5.9,   -6.1,   -6.6,   -7.4,   -7.3,   -7.4,   -7.3,   -7.0,   -7.1,   -7.5,   -7.8,   -8.0,   -8.1,   -7.9,   -7.2,   -8.1,   -8.1,   -8.5,   -8.3,   -7.6,  999.0,  999.0,  999.0,  999.0,  999.0,  999.0,  999.0,  999.0,  999.0,  999.0,  999.0,  999.0,  -55.4,  -55.4,  -55.4,  -55.2,  -55.4,  -55.4,  -55.4,  -55.0,  -55.4,  -55.8,  999.0,  999.0,  999.0,  999.0,  999.0,  999.0,  999.0,  999.0,  999.0
2005/08/22 06:50,  999.0,    0.6,   -1.9,   -1.6,   -2.2,   -3.0,   -3.5,   -4.2,   -4.7,   -5.0,   -5.4,   -5.5,   -5.5,   -5.6,   -6.8,   -7.2,   -7.5,   -7.3,   -7.2,   -7.3,   -7.7,   -8.8,   -8.0,   -8.7,   -8.6,   -8.1,   -8.1,   -8.5,   -8.5,   -8.3,   -7.8,   -7.2,   -6.7,   -6.9,  999.0,  999.0,  999.0,  999.0,  999.0,  999.0,  999.0,  999.0,  999.0,  999.0,  -55.1,  -55.0,  -55.3,  -55.3,  -55.5,  -55.5,  -55.3,  -55.6,  -55.6,  999.0,  -55.3,  999.0,  999.0,  999.0,  999.0,  999.0,  999.0,  999.0,  999.0
2005/08/22 07:00,  999.0,    0.6,   -1.2,   -1.3,   -1.6,   -2.4,   -2.9,   -4.5,   -4.8,   -5.0,   -5.3,   -5.6,   -5.6,   -6.0,   -7.0,   -7.2,   -7.1,   -7.5,   -7.5,   -7.7,  999.0,   -8.3,   -8.0,   -8.4,   -8.5,  999.0,   -7.7,   -7.7,   -7.9,   -8.0,   -8.0,   -7.3,   -7.0,   -6.7,  999.0,  999.0,  999.0,  999.0,  999.0,  999.0,  999.0,  999.0,  999.0,  999.0,  999.0,  999.0,  -55.0,  -55.5,  -55.8,  -55.9,  -55.2,  -55.4,  -55.5,  999.0,  999.0,  -56.1,  999.0,  999.0,  999.0,  999.0,  999.0,  999.0,  999.0
2005/08/22 07:10,  999.0,   -0.9,   -0.2,   -1.7,   -0.4,   -1.7,   -2.9,   -3.8,   -4.2,   -4.6,   -4.8,   -5.2,   -5.5,   -6.1,   -6.7,   -7.3,   -7.0,   -7.5,   -8.3,   -7.8,   -8.3,   -8.7,   -8.0,   -8.1,   -8.2,   -8.5,   -7.7,   -7.8,   -7.1,   -7.8,   -8.5,   -7.9,   -8.0,   -7.7,   -7.4,   -6.5,  999.0,   -6.5,  999.0,  999.0,  999.0,  999.0,  999.0,  999.0,  999.0,  999.0,  -55.3,  999.0,  -55.3,  -55.3,  -55.4,  -55.3,  -55.5,  -55.2,  999.0,  -55.3,  999.0,  999.0,  999.0,  999.0,  999.0,  999.0,  999.0
2005/08/22 07:20,  999.0,    1.6,   -1.1,   -2.1,    0.3,   -2.9,   -4.2,   -4.0,  999.0,   -4.9,   -4.7,   -5.0,   -4.9,   -5.4,   -6.5,   -6.5,   -6.5,   -7.2,   -7.4,   -7.9,   -8.2,   -8.1,   -7.6,   -8.1,   -8.0,   -8.2,   -8.0,   -7.9,   -7.7,   -8.2,   -7.6,   -8.3,   -8.5,   -7.7,  999.0,  999.0,  999.0,  999.0,  999.0,  999.0,  999.0,  999.0,  999.0,  999.0,  999.0,  999.0,  -55.1,  -55.1,  999.0,  -55.7,  -55.4,  999.0,  999.0,  999.0,  999.0,  999.0,  999.0,  999.0,  999.0,  999.0,  999.0,  999.0,  999.0
2005/08/22 07:30,  999.0,    0.0,   -3.8,   -2.2,   -2.2,   -4.0,   -4.5,   -4.1,   -4.3,   -4.8,   -5.2,   -5.5,   -5.6,   -6.1,   -6.9,   -7.3,   -6.6,   -6.5,   -6.5,   -6.9,   -7.0,   -6.9,   -7.0,   -7.8,   -8.0,   -8.3,   -8.1,   -8.2,   -7.1,   -7.2,   -7.2,   -7.3,  999.0,  999.0,  999.0,  999.0,  999.0,  999.0,  999.0,  999.0,  999.0,  999.0,  999.0,  -27.6,  999.0,  999.0,  999.0,  999.0,  999.0,  999.0,  999.0,  999.0,  999.0,  999.0,  999.0,  999.0,  999.0,  999.0,  999.0,  999.0,  999.0,  999.0,  999.0
2005/08/22 07:40,  999.0,   -0.4,   -0.9,   -1.2,   -2.7,   -3.7,   -3.7,   -3.7,   -4.1,   -5.0,   -5.3,   -5.3,   -5.3,   -6.0,   -6.6,   -6.8,   -6.9,   -6.6,   -6.8,   -6.6,   -6.6,   -6.5,   -7.2,   -7.3,   -7.2,   -7.4,   -7.9,   -7.6,   -7.5,   -7.6,   -7.4,   -7.0,   -7.0,  999.0,  999.0,  999.0,  999.0,  999.0,  999.0,  999.0,  999.0,  999.0,  999.0,  -27.6,  -27.5,  -27.7,  -28.1,  -27.5,  -27.4,  999.0,  999.0,  999.0,  999.0,  999.0,  999.0,  999.0,  999.0,  999.0,  999.0,  999.0,  999.0,  999.0,  999.0
2005/08/22 07:50,  999.0,   -0.4,   -0.7,   -0.8,   -2.4,   -3.2,   -3.3,   -3.8,   -3.5,   -5.3,   -5.6,   -5.4,   -5.9,   -5.9,   -6.4,   -6.8,   -6.8,   -7.2,   -7.2,   -6.7,   -6.6,   -6.0,   -6.0,   -6.6,   -6.8,   -6.8,   -7.3,   -6.9,   -6.9,   -7.4,   -7.2,   -6.7,   -6.7,   -6.8,  999.0,  999.0,  999.0,  999.0,  999.0,  999.0,  999.0,  999.0,  999.0,  999.0,  999.0,  999.0,  999.0,  999.0,  999.0,  999.0,  999.0,  999.0,  999.0,  999.0,  999.0,  999.0,  999.0,  999.0,  999.0,  999.0,  999.0,  999.0,  999.0
2005/08/22 08:00,  999.0,   -0.2,   -1.2,   -1.8,   -2.2,   -3.3,   -3.9,   -3.5,   -5.1,   -5.1,   -5.4,   -5.4,   -5.7,   -5.8,   -6.3,   -6.6,   -7.0,   -7.3,   -7.0,   -6.9,   -6.9,   -6.9,   -7.5,   -7.6,   -7.8,   -7.2,   -7.5,   -7.2,   -7.6,   -7.7,   -7.5,   -7.3,   -6.8,   -6.7,  999.0,  999.0,  999.0,  999.0,  999.0,  999.0,  999.0,  999.0,  999.0,  -55.2,  999.0,  -55.4,  -55.3,  -55.3,  -55.2,  999.0,  -55.5,  -55.4,  -55.5,  999.0,  -55.3,  -55.1,  999.0,  999.0,  -55.4,  999.0,  999.0,  999.0,  999.0
2005/08/22 08:10,  999.0,    0.2,   -1.4,   -4.0,   -2.3,   -2.8,   -3.2,   -2.6,   -3.0,   -4.7,   -5.7,   -5.9,   -5.7,  999.0,  999.0,  999.0,   -6.9,   -6.9,   -6.6,  999.0,   -9.0,   -8.5,   -7.9,   -8.3,   -8.3,   -7.9,   -8.0,   -7.6,   -7.6,   -7.3,   -7.9,   -7.0,   -6.6,   -6.8,  999.0,  999.0,  999.0,  999.0,  999.0,  999.0,  999.0,  999.0,  -55.0,  -55.1,  -55.2,  -55.3,  -55.1,  -55.2,  -55.5,  -55.4,  -55.5,  -55.1,  -55.1,  -55.3,  -55.3,  -54.7,  999.0,  -55.2,  999.0,  999.0,  999.0,  999.0,  999.0
2005/08/22 08:20,  999.0,    0.5,   -3.2,   -2.9,   -3.0,   -2.5,   -3.5,   -3.9,   -4.4,   -4.9,   -4.8,   -5.0,   -5.5,   -5.1,   -5.9,   -6.5,   -6.5,   -6.8,   -7.1,   -6.8,   -7.4,   -7.8,   -8.0,   -8.0,   -8.4,   -8.5,   -8.4,   -8.4,   -8.1,   -7.6,   -8.1,   -7.1,  999.0,  999.0,  999.0,  999.0,  999.0,  999.0,  999.0,  999.0,  999.0,  999.0,  999.0,  999.0,  999.0,  999.0,  999.0,  999.0,  -55.6,  999.0,  999.0,  999.0,  999.0,  999.0,  999.0,  999.0,  999.0,  999.0,  999.0,  999.0,  999.0,  999.0,  999.0
2005/08/22 08:30,  999.0,   -1.0,   -3.6,   -4.2,   -2.7,   -2.7,   -3.7,   -4.0,   -4.0,   -5.5,   -5.2,   -5.2,   -5.9,   -6.4,   -6.4,   -6.8,   -6.7,   -7.2,   -6.9,   -6.9,   -7.4,   -7.9,   -8.3,   -8.1,   -8.1,   -8.0,   -7.7,   -7.7,   -8.4,   -7.7,   -7.6,   -7.0,   -6.4,   -6.5,   -6.6,  999.0,   -6.0,   -6.9,   -6.8,  999.0,  999.0,  999.0,  999.0,  999.0,  999.0,  999.0,  999.0,  999.0,  999.0,  999.0,  999.0,  999.0,  999.0,  999.0,  999.0,  999.0,  999.0,  999.0,  999.0,  999.0,  999.0,  999.0,  999.0
2005/08/22 08:40,  999.0,   -0.7,   -3.6,   -4.6,   -2.6,   -2.0,   -2.8,   -3.5,   -4.5,   -5.8,   -5.7,   -5.8,   -6.1,   -6.3,   -7.4,   -6.7,   -6.6,   -7.0,   -6.5,   -6.9,   -7.1,   -8.1,   -8.4,   -7.9,   -7.7,   -7.2,   -7.3,   -7.0,   -7.1,   -7.5,   -8.1,   -7.8,   -6.8,   -7.4,  999.0,   -5.8,   -6.7,   -7.0,  999.0,  999.0,  999.0,  999.0,  999.0,  999.0,  999.0,  999.0,  999.0,  999.0,  999.0,  999.0,  999.0,  999.0,  999.0,  999.0,  999.0,  999.0,  999.0,  999.0,  999.0,  999.0,  999.0,  999.0,  999.0
2005/08/22 08:50,  999.0,   -0.1,   -3.6,   -4.4,   -3.5,   -2.2,   -2.7,   -4.2,   -5.8,   -5.8,   -6.1,   -6.8,   -6.6,   -6.2,   -6.2,   -6.2,   -6.2,   -6.7,   -6.7,   -7.0,   -7.5,   -8.3,   -7.9,   -8.0,   -8.3,   -7.7,   -7.2,   -7.1,   -7.1,   -7.9,   -8.0,   -8.3,   -8.4,   -6.8,   -6.2,   -5.9,   -6.2,   -6.2,  999.0,  999.0,  999.0,  999.0,  999.0,  999.0,  999.0,  999.0,  999.0,  999.0,  999.0,  999.0,  999.0,  999.0,  999.0,  999.0,  999.0,  999.0,  999.0,  999.0,  999.0,  999.0,  999.0,  999.0,  999.0
2005/08/22 09:00,  999.0,   -1.0,   -3.3,   -3.7,   -3.2,   -2.4,   -2.4,   -3.6,   -5.2,   -5.9,   -6.2,   -6.6,   -6.9,   -6.5,   -6.4,   -6.4,   -6.3,   -6.0,   -6.5,   -7.1,   -7.8,   -8.5,   -7.6,   -8.0,   -8.0,   -8.1,   -7.1,   -6.9,   -6.7,   -7.4,  999.0,   -8.3,   -8.9,   -8.2,   -7.7,   -7.2,   -6.1,   -6.6,  999.0,  999.0,  999.0,  999.0,  999.0,   -6.7,  999.0,  999.0,  999.0,  999.0,  999.0,  999.0,  999.0,  999.0,  999.0,  999.0,  999.0,  999.0,  999.0,  999.0,  999.0,  999.0,  999.0,  999.0,  999.0
2005/08/22 09:10,  999.0,   -0.9,   -3.4,   -3.9,   -3.0,   -2.6,   -3.3,   -4.4,   -5.4,   -5.4,   -6.3,   -7.0,   -6.6,   -6.7,   -6.2,   -6.2,   -6.2,   -6.4,   -6.4,   -6.9,   -8.2,   -8.9,   -8.1,   -8.1,   -8.1,   -7.9,   -7.2,   -7.2,   -7.6,   -7.3,   -7.8,   -8.2,   -9.2,   -8.6,   -8.5,   -7.1,   -6.6,   -6.9,  999.0,  999.0,  999.0,  999.0,  999.0,   -6.3,  999.0,  999.0,  999.0,  999.0,  999.0,  999.0,  999.0,  999.0,  999.0,  999.0,  999.0,  999.0,  999.0,  999.0,  999.0,  999.0,  999.0,  999.0,  999.0
2005/08/22 09:20,  999.0,   -0.5,   -3.5,   -3.1,   -4.2,   -3.1,   -3.1,   -4.3,   -4.8,   -5.4,   -6.0,   -6.6,   -6.2,   -6.1,   -6.1,   -6.1,   -6.6,   -6.7,   -7.3,   -7.9,   -8.6,   -8.7,   -7.8,   -7.4,   -7.8,   -7.5,   -7.4,   -7.0,   -6.9,   -6.8,   -7.3,   -7.7,  999.0,   -9.0,   -8.7,   -6.7,  999.0,  999.0,   -4.6,  999.0,  999.0,  999.0,  999.0,  999.0,  999.0,  999.0,  999.0,  999.0,  999.0,  999.0,  999.0,  999.0,  999.0,  999.0,  999.0,  999.0,  999.0,  999.0,  999.0,  999.0,  999.0,  999.0,  999.0
2005/08/22 09:30,  999.0,   -1.5,   -3.5,   -5.2,   -4.0,   -3.7,   -4.6,   -4.6,   -5.2,   -6.2,   -6.4,   -6.2,   -6.1,   -5.9,   -5.7,   -6.8,   -6.9,   -6.8,   -7.0,   -8.2,   -8.8,   -8.9,   -7.5,   -7.5,   -7.9,   -7.7,   -7.7,   -7.5,   -7.1,   -6.1,   -6.6,  999.0,   -8.1,   -9.0,   -8.2,   -7.3,   -5.7,  999.0,  999.0,  999.0,  999.0,  999.0,  999.0,  999.0,  999.0,  999.0,  999.0,  999.0,  999.0,  999.0,  999.0,  999.0,  999.0,  999.0,  999.0,  999.0,  999.0,  999.0,  999.0,  999.0,  999.0,  999.0,  999.0
2005/08/22 09:40,  999.0,  999.0,   -2.2,   -2.3,   -2.6,   -3.7,   -4.5,   -4.5,   -5.1,   -6.1,   -5.7,   -5.7,   -5.5,   -5.8,   -6.3,   -6.6,   -6.4,   -6.2,   -7.1,   -8.4,   -8.8,   -8.6,   -7.7,   -8.5,   -8.3,   -8.3,   -7.7,   -7.7,  999.0,  999.0,  999.0,  999.0,  999.0,  999.0,  999.0,  999.0,  999.0,  999.0,  999.0,  999.0,  999.0,  -55.4,  999.0,  -55.3,  999.0,  999.0,  999.0,  999.0,  999.0,  999.0,  999.0,  999.0,  999.0,  999.0,  999.0,  999.0,  999.0,  999.0,  999.0,  999.0,  999.0,  999.0,  999.0
2005/08/22 09:50,  999.0,    1.2,   -2.0,   -1.9,   -2.7,   -3.2,   -4.3,   -4.7,   -5.6,   -5.5,   -5.7,   -5.8,   -6.3,   -5.9,   -6.4,   -6.3,   -6.4,   -6.5,   -6.5,   -7.9,   -8.7,   -8.4,   -7.6,   -8.6,   -8.0,   -7.7,   -7.1,   -6.9,   -6.5,  999.0,  999.0,  999.0,  999.0,  999.0,  999.0,  999.0,  999.0,  999.0,  999.0,  999.0,  999.0,  999.0,  -42.5,  999.0,  999.0,  999.0,  999.0,  999.0,  999.0,  999.0,  999.0,  999.0,  999.0,  999.0,  999.0,  999.0,  999.0,  999.0,  999.0,  999.0,  999.0,  999.0,  999.0
2005/08/22 10:00,  999.0,    0.1,   -1.1,   -2.3,   -3.0,   -3.7,   -4.2,   -5.0,   -5.8,   -6.0,   -6.0,   -5.9,   -5.8,   -5.7,   -6.3,   -6.4,   -5.7,   -5.7,   -6.6,  999.0,   -8.6,   -8.5,   -7.6,   -8.0,   -7.8,   -6.6,   -6.5,   -5.7,   -6.8,   -7.8,  999.0,  999.0,  999.0,   -8.4,  999.0,  999.0,  999.0,  999.0,  999.0,  999.0,  999.0,  999.0,  999.0,  999.0,  999.0,  999.0,  999.0,  999.0,  999.0,  999.0,  999.0,  999.0,  999.0,  999.0,  999.0,  999.0,  999.0,  999.0,  999.0,  999.0,  999.0,  999.0,  999.0
2005/08/22 10:10,  999.0,   -0.4,   -2.0,   -2.6,   -2.7,   -3.7,   -3.8,   -4.8,   -6.1,   -5.9,   -5.8,   -6.3,   -6.7,   -6.2,   -5.9,   -5.8,   -6.4,   -6.8,   -6.9,   -7.5,   -8.6,   -9.2,   -8.2,   -7.7,   -6.9,   -7.1,   -6.4,  999.0,   -6.4,   -7.3,  999.0,  999.0,   -8.4,   -7.7,   -6.9,   -7.6,  999.0,  999.0,  999.0,  999.0,  999.0,  999.0,  999.0,  999.0,  999.0,  999.0,  999.0,  999.0,  999.0,  999.0,  999.0,  999.0,  999.0,  999.0,  999.0,  999.0,  999.0,  999.0,  999.0,  999.0,  999.0,  999.0,  999.0
2005/08/22 10:20,  999.0,   -1.1,   -2.7,   -2.3,   -2.6,   -3.5,   -4.3,   -4.6,   -5.1,   -5.8,   -5.8,   -5.5,   -5.6,   -6.4,   -6.7,   -6.7,   -6.1,   -6.6,   -7.3,   -7.5,   -7.9,  999.0,   -8.3,   -7.6,   -6.8,   -6.9,  999.0,  999.0,   -6.6,   -7.6,  999.0,  999.0,  999.0,  999.0,  999.0,  999.0,  999.0,  999.0,  999.0,  999.0,  999.0,  999.0,  999.0,  999.0,  999.0,  999.0,  999.0,  999.0,  999.0,  999.0,  999.0,  999.0,  999.0,  999.0,  999.0,  999.0,  999.0,  999.0,  999.0,  999.0,  999.0,  999.0,  999.0
2005/08/22 10:30,  999.0,   -3.8,   -3.7,   -1.9,   -1.1,   -2.2,   -4.0,   -5.2,   -3.8,   -6.1,   -5.9,   -5.7,   -5.2,   -5.8,   -6.5,   -6.0,   -6.2,   -7.0,   -7.2,   -7.6,   -8.1,   -8.2,   -8.0,   -7.6,   -7.4,  999.0,  999.0,  999.0,  999.0,  999.0,  999.0,  999.0,  999.0,  999.0,  999.0,  999.0,  999.0,  999.0,  999.0,  999.0,  999.0,  999.0,  999.0,  999.0,  999.0,  999.0,  999.0,  999.0,  999.0,  999.0,  999.0,  999.0,  999.0,  999.0,  999.0,  999.0,  999.0,  999.0,  999.0,  999.0,  999.0,  999.0,  999.0
2005/08/22 10:40,  999.0,   -0.3,   -1.8,   -1.0,   -1.0,   -2.7,   -3.8,   -5.6,   -5.4,   -6.2,   -6.1,   -6.3,   -6.4,   -7.5,   -7.3,   -6.6,   -6.7,   -6.8,   -7.6,   -8.1,   -8.4,   -8.5,   -7.9,   -7.4,  999.0,  999.0,  999.0,  999.0,  999.0,  999.0,  999.0,  999.0,  999.0,  999.0,  999.0,  999.0,  999.0,  999.0,  999.0,  999.0,  999.0,  999.0,  999.0,  999.0,  999.0,  999.0,  999.0,  999.0,  999.0,  999.0,  999.0,  999.0,  999.0,  999.0,  999.0,  999.0,  999.0,  999.0,  999.0,  999.0,  999.0,  999.0,  999.0
2005/08/22 10:50,  999.0,    0.4,   -1.3,   -1.7,   -1.1,   -4.0,   -4.0,   -4.6,   -4.9,   -5.0,   -6.1,   -6.8,   -5.5,   -7.3,   -7.3,   -6.8,   -7.2,   -7.7,   -8.4,   -9.0,   -9.2,   -9.3,   -8.5,  999.0,  999.0,  999.0,  999.0,  999.0,  999.0,  999.0,  999.0,  999.0,  999.0,  999.0,  999.0,  999.0,  999.0,  999.0,  999.0,  999.0,  999.0,  999.0,  999.0,  999.0,  999.0,  999.0,  999.0,  999.0,  999.0,  999.0,  999.0,  999.0,  999.0,  999.0,  999.0,  999.0,  999.0,  999.0,  999.0,  999.0,  999.0,  999.0,  999.0
2005/08/22 11:00,  999.0,   -0.1,   -1.3,   -1.1,   -1.6,   -2.0,   -4.7,   -5.5,   -5.9,   -6.2,   -6.3,   -6.3,   -6.5,   -6.2,   -7.1,   -7.0,   -7.0,   -7.3,   -7.3,   -8.2,   -7.5,   -7.4,   -7.0,   -7.2,  999.0,  999.0,  999.0,  999.0,  999.0,  999.0,  999.0,  999.0,  999.0,  999.0,  999.0,  999.0,  999.0,  999.0,  999.0,  999.0,  999.0,  999.0,  999.0,  999.0,  999.0,  999.0,  999.0,  999.0,  999.0,  999.0,  999.0,  999.0,  999.0,  999.0,  999.0,  999.0,  999.0,  999.0,  999.0,  999.0,  999.0,  999.0,  999.0
2005/08/22 11:10,  999.0,  999.0,   -0.9,   -0.6,   -2.3,   -3.8,   -4.6,   -5.9,   -6.3,   -5.5,   -5.3,   -5.4,   -5.6,   -6.3,   -6.7,   -7.7,   -7.3,   -7.5,   -9.5,   -8.8,   -8.3,   -8.7,   -7.5,   -6.5,   -6.5,  999.0,  999.0,  999.0,  999.0,  999.0,  999.0,  999.0,  -55.0,  -55.0,  -54.8,  -55.0,  -55.0,  -55.0,  -54.8,  -55.0,  -55.0,  -55.1,  -55.1,  999.0,  -55.2,  -55.0,  999.0,  999.0,  999.0,  999.0,  999.0,  999.0,  999.0,  999.0,  999.0,  999.0,  999.0,  999.0,  999.0,  999.0,  999.0,  999.0,  999.0
2005/08/22 11:20,  999.0,    0.1,   -1.0,   -1.9,   -2.8,   -3.4,   -4.1,   -4.8,   -4.6,   -5.2,   -4.8,   -4.7,   -5.6,   -7.2,   -6.6,   -7.9,   -7.8,   -9.2,   -8.5,   -9.6,  -10.4,  -10.3,   -9.5,   -9.3,  999.0,  999.0,  999.0,  999.0,  999.0,  -54.8,  -54.9,  -55.0,  -55.0,  -55.0,  -55.1,  -55.0,  -55.0,  -55.1,  -55.2,  -54.9,  -55.0,  -55.2,  -55.1,  999.0,  -55.2,  -55.4,  -55.1,  -54.6,  999.0,  999.0,  999.0,  999.0,  999.0,  999.0,  999.0,  999.0,  999.0,  999.0,  999.0,  999.0,  999.0,  999.0,  999.0
2005/08/22 11:30,  999.0,  999.0,   -2.4,   -3.2,   -2.9,   -3.0,   -3.6,   -4.8,   -6.0,   -5.7,   -6.1,   -6.1,   -7.4,   -7.1,   -7.4,   -8.0,   -8.5,   -9.4,   -9.8,   -9.2,   -9.0,   -9.1,   -9.1,   -8.5,   -8.3,  999.0,  999.0,  999.0,  999.0,  999.0,  999.0,  -54.9,  -54.9,  -54.9,  -54.8,  -54.9,  -55.0,  -54.9,  999.0,  -54.9,  -54.8,  999.0,  999.0,  999.0,  999.0,  -55.1,  -55.3,  999.0,  999.0,  999.0,  999.0,  999.0,  999.0,  999.0,  999.0,  999.0,  999.0,  999.0,  999.0,  999.0,  999.0,  999.0,  999.0
2005/08/22 11:40,  999.0,   -0.8,   -1.6,   -1.9,   -1.6,   -4.1,   -3.2,   -3.6,   -4.2,   -4.6,   -4.9,   -5.7,   -5.6,   -5.5,   -6.8,   -7.1,   -7.1,   -8.0,   -8.6,   -8.8,   -8.5,   -8.9,   -8.3,   -8.3,   -8.0,   -7.9,  999.0,  999.0,  999.0,  999.0,  999.0,  999.0,  999.0,  999.0,  -54.8,  -54.9,  -55.0,  -54.9,  -55.1,  -54.8,  -55.3,  -55.1,  -55.3,  -55.4,  999.0,  -55.0,  -55.0,  999.0,  999.0,  999.0,  999.0,  999.0,  999.0,  999.0,  999.0,  999.0,  999.0,  999.0,  999.0,  999.0,  999.0,  999.0,  999.0
2005/08/22 11:50,  999.0,   -1.5,   -1.4,   -1.6,   -1.3,   -2.7,   -3.5,   -3.2,   -3.5,   -4.0,   -5.1,   -5.7,   -4.4,   -5.4,   -5.5,   -6.5,   -7.1,   -7.6,   -8.1,   -9.5,   -8.7,   -8.7,   -8.4,   -8.0,   -8.0,   -8.0,   -7.8,  999.0,  999.0,  999.0,  999.0,  999.0,  999.0,  999.0,  999.0,  999.0,  -55.0,  -55.0,  -55.0,  -55.2,  -55.0,  -54.9,  -54.9,  -54.9,  999.0,  999.0,  -55.1,  999.0,  999.0,  999.0,  999.0,  999.0,  999.0,  999.0,  999.0,  999.0,  999.0,  999.0,  999.0,  999.0,  999.0,  999.0,  999.0
2005/08/22 12:00,  999.0,   -0.2,   -1.6,   -1.2,   -1.5,   -2.8,   -3.9,   -4.6,   -5.4,   -6.1,   -6.2,   -6.3,   -5.9,   -5.7,   -5.4,   -5.5,   -5.9,   -6.5,   -6.9,   -6.8,  999.0,   -8.5,   -8.1,   -7.3,   -6.7,  999.0,  999.0,  999.0,  999.0,  999.0,  999.0,  999.0,  999.0,  999.0,  999.0,  999.0,  -54.9,  -54.8,  -55.2,  999.0,  -55.0,  -55.2,  999.0,  999.0,  999.0,  -54.7,  999.0,  999.0,  999.0,  999.0,  999.0,  999.0,  999.0,  999.0,  999.0,  999.0,  999.0,  999.0,  999.0,  999.0,  999.0,  999.0,  999.0
2005/08/22 12:10,  999.0,   -0.5,   -1.6,   -2.2,   -2.5,   -3.8,   -3.8,   -5.0,   -5.7,   -6.6,   -6.3,   -5.7,   -5.3,   -5.5,   -5.5,   -5.9,   -6.4,   -7.4,   -8.9,   -8.9,  -10.5,   -8.4,   -7.4,   -7.3,   -6.7,  999.0,  999.0,  999.0,  999.0,  999.0,  999.0,  999.0,  999.0,  999.0,  999.0,  999.0,  -54.8,  999.0,  -55.1,  999.0,  999.0,  999.0,  999.0,  -42.6,  999.0,  999.0,  999.0,  999.0,  999.0,  999.0,  999.0,  999.0,  999.0,  999.0,  999.0,  999.0,  999.0,  999.0,  999.0,  999.0,  999.0,  999.0,  999.0
2005/08/22 12:20,  999.0,    1.6,   -0.4,   -2.9,   -1.8,   -3.7,   -5.9,   -6.1,   -6.5,   -5.6,   -4.4,   -3.8,   -6.4,   -6.3,   -7.5,   -6.3,   -5.9,   -5.9,   -6.9,   -6.1,   -6.4,   -7.5,  999.0,   -7.0,   -7.6,   -5.7,   -6.1,  999.0,  999.0,  999.0,  999.0,  999.0,  999.0,  999.0,  999.0,  999.0,  999.0,  999.0,  999.0,  999.0,  999.0,  999.0,  999.0,  999.0,  999.0,  999.0,  999.0,  999.0,  999.0,  999.0,  999.0,  999.0,  999.0,  999.0,  999.0,  999.0,  999.0,  999.0,  999.0,  999.0,  999.0,  999.0,  999.0
2005/08/22 12:30,  999.0,   -2.4,   -2.8,   -2.6,   -4.0,   -3.5,  999.0,   -4.0,   -4.5,   -6.0,   -5.8,   -6.1,   -5.7,   -6.0,   -5.0,   -8.7,   -8.0,   -7.6,   -8.1,   -8.4,   -8.4,   -9.2,   -6.5,   -7.5,   -6.7,   -6.4,   -6.9,   -6.7,  999.0,  999.0,  999.0,  999.0,  999.0,  999.0,  999.0,  999.0,  999.0,  999.0,  999.0,  999.0,  -30.0,  999.0,  -25.3,  999.0,  999.0,  999.0,  999.0,  999.0,  999.0,  999.0,  999.0,  999.0,  999.0,  999.0,  999.0,  999.0,  999.0,  999.0,  999.0,  999.0,  999.0,  999.0,  999.0
2005/08/22 12:40,  999.0,   -0.8,   -0.8,   -0.9,   -2.8,   -3.8,   -4.5,   -5.2,   -5.8,   -6.0,   -5.8,   -5.7,   -5.7,   -6.4,   -7.3,   -7.7,   -8.7,   -5.5,   -6.9,   -6.8,   -6.7,   -7.2,   -6.2,   -7.3,   -7.7,   -6.0,   -5.9,   -6.5,   -6.2,   -7.9,   -8.7,  999.0,  999.0,  999.0,  999.0,  999.0,  999.0,  999.0,  999.0,  999.0,  999.0,  -13.0,  -11.4,  999.0,  999.0,  999.0,  999.0,  999.0,  999.0,  999.0,  999.0,  999.0,  999.0,  999.0,  999.0,  999.0,  999.0,  999.0,  999.0,  999.0,  999.0,  999.0,  999.0
2005/08/22 12:50,  999.0,    1.0,   -0.2,    0.1,   -0.1,   -3.1,   -1.3,   -3.8,   -4.5,   -5.7,   -6.7,   -7.1,   -6.2,   -6.3,   -6.0,   -6.7,   -7.3,   -8.0,   -6.7,   -6.8,   -7.5,   -7.5,   -6.7,  999.0,   -7.9,   -6.3,  999.0,  -16.8,  999.0,  -13.0,  999.0,  999.0,  999.0,  999.0,  999.0,  999.0,  999.0,  999.0,  999.0,  999.0,  999.0,  999.0,  999.0,  999.0,  999.0,  999.0,  999.0,  999.0,  999.0,  999.0,  999.0,  999.0,  999.0,  999.0,  999.0,  999.0,  999.0,  999.0,  999.0,  999.0,  999.0,  999.0,  999.0
2005/08/22 13:00,  999.0,   -0.3,   -1.0,   -1.1,   -2.6,   -3.1,   -4.5,   -5.4,   -7.5,   -4.9,   -5.8,   -3.6,   -1.5,   -3.7,   -8.3,   -5.6,   -7.0,   -6.7,   -8.5,   -7.3,   -6.6,   -7.0,   -7.4,   -7.6,  999.0,  999.0,   -6.5,  999.0,    9.2,  999.0,  999.0,  999.0,  999.0,  999.0,  999.0,  999.0,  999.0,  999.0,  999.0,  999.0,  999.0,  999.0,  999.0,  999.0,  999.0,  999.0,  999.0,  999.0,  999.0,  999.0,  999.0,  999.0,  999.0,  999.0,  999.0,  999.0,  999.0,  999.0,  999.0,  999.0,  999.0,  999.0,  999.0
2005/08/22 13:10,  999.0,  999.0,   -1.4,   -1.7,   -2.1,   -3.0,   -3.7,   -3.7,   -4.3,   -4.2,   -4.6,   -5.4,   -6.0,   -5.7,   -5.7,   -6.1,   -6.1,   -6.5,   -6.9,  999.0,   -7.0,   -7.9,   -7.4,   -6.4,   -5.8,   -5.8,   -6.1,   -5.7,  999.0,  999.0,  999.0,  999.0,  999.0,  999.0,  999.0,  999.0,  999.0,  999.0,  999.0,  999.0,  999.0,  999.0,  999.0,  999.0,  999.0,  999.0,  999.0,  999.0,  999.0,  999.0,  999.0,  999.0,  999.0,  999.0,  999.0,  999.0,  999.0,  999.0,  999.0,  999.0,  999.0,  999.0,  999.0
2005/08/22 13:20,  999.0,   -0.8,   -1.8,   -1.7,   -1.8,   -3.0,   -4.5,   -4.6,   -5.3,   -5.3,   -5.4,   -5.7,   -6.2,   -6.8,   -6.7,   -6.8,   -7.2,   -7.3,   -7.4,   -7.2,  999.0,   -8.3,   -7.4,  999.0,  999.0,  999.0,  999.0,  999.0,   26.1,   27.0,   26.8,  999.0,  999.0,  999.0,  999.0,  999.0,  999.0,  999.0,  999.0,  999.0,  999.0,  999.0,  999.0,  999.0,  999.0,  999.0,  999.0,  999.0,  999.0,  999.0,  999.0,  999.0,  999.0,  999.0,  999.0,  999.0,  999.0,  999.0,  999.0,  999.0,  999.0,  999.0,  999.0
2005/08/22 13:30,  999.0,    0.1,   -1.2,   -1.3,   -2.3,   -3.5,   -4.4,   -6.0,   -4.9,   -4.9,   -5.0,   -5.6,   -6.6,   -6.8,   -7.6,   -7.9,   -8.1,   -7.2,   -6.7,   -7.1,   -7.5,   -8.1,   -8.1,   -7.0,  999.0,   -5.3,  999.0,  999.0,  999.0,  999.0,  999.0,  999.0,  999.0,  999.0,  999.0,  999.0,  999.0,  999.0,  999.0,  999.0,    8.3,  999.0,  999.0,  999.0,  999.0,  999.0,  999.0,  999.0,  999.0,  999.0,  999.0,  999.0,  999.0,  999.0,  999.0,  999.0,  999.0,  999.0,  999.0,  999.0,  999.0,  999.0,  999.0
2005/08/22 13:40,  999.0,    0.1,   -0.6,   -1.0,   -2.0,   -2.9,   -5.1,   -5.2,   -5.2,   -5.0,   -5.6,   -5.3,   -5.6,   -6.0,   -5.8,   -6.7,   -7.5,   -7.0,   -6.6,   -6.8,   -6.2,   -5.6,   -5.2,   -5.5,   -4.6,   -5.0,   -4.1,   -4.7,   -4.3,   -4.8,  999.0,  999.0,  999.0,  999.0,  999.0,  999.0,  -55.3,  -55.0,  -55.0,  -55.0,  -55.2,  -55.2,  -55.0,  999.0,  999.0,  999.0,  999.0,  999.0,  999.0,  999.0,  999.0,  999.0,  999.0,  999.0,  999.0,  999.0,  999.0,  999.0,  999.0,  999.0,  999.0,  999.0,  999.0
2005/08/22 13:50,  999.0,   -1.2,   -1.5,   -2.9,   -4.0,   -3.8,   -4.9,   -5.2,   -5.1,   -6.2,   -5.6,   -5.9,   -5.0,   -8.0,   -9.8,   -8.0,   -8.2,   -6.8,   -8.0,   -7.3,   -7.5,   -6.4,   -5.7,   -5.9,   -5.3,  999.0,   -2.8,   -3.9,   -3.8,   -3.6,   -4.4,   -5.1,  999.0,  999.0,  999.0,  999.0,  999.0,  999.0,  -55.0,  999.0,  -49.2,  -47.4,  -55.1,  999.0,  999.0,  999.0,  999.0,  999.0,  999.0,  999.0,  999.0,  999.0,  999.0,  999.0,  999.0,  999.0,  999.0,  999.0,  999.0,  999.0,  999.0,  999.0,  999.0
2005/08/22 14:00,  999.0,  999.0,   -2.6,   -3.1,   -1.8,   -1.0,   -2.5,   -2.0,   -2.2,   -5.6,   -7.4,   -7.8,   -9.2,  -10.9,  -10.4,   -9.3,  -10.1,   -5.8,   -9.1,   -9.0,   -9.6,  -10.3,   -8.5,   -9.0,   -6.3,   -7.0,   -6.0,   -6.0,   -4.4,   -4.9,   -4.4,   -8.0,  999.0,  999.0,  999.0,  999.0,  999.0,  999.0,  999.0,  999.0,  999.0,  999.0,  999.0,  999.0,  999.0,  999.0,  999.0,  999.0,  999.0,  999.0,  999.0,  999.0,  999.0,  999.0,  999.0,  999.0,  999.0,  999.0,  999.0,  999.0,  999.0,  999.0,  999.0
2005/08/22 14:10,  999.0,   -0.4,   -2.1,   -4.2,   -3.1,   -4.1,   -4.1,   -5.2,   -6.2,   -6.8,   -6.6,   -6.1,   -7.1,   -7.6,   -6.9,   -7.3,   -7.6,   -7.9,   -7.9,   -7.9,   -7.2,   -6.5,   -5.2,   -5.8,   -5.9,   -6.0,   -6.9,  999.0,  999.0,  999.0,  999.0,  999.0,  999.0,  999.0,  999.0,  999.0,  999.0,  999.0,  -55.1,  -55.0,  -55.0,  -54.9,  -55.1,  -55.1,  999.0,  999.0,  999.0,  -55.4,  999.0,  999.0,  999.0,  999.0,  999.0,  999.0,  999.0,  999.0,  999.0,  999.0,  999.0,  999.0,  999.0,  999.0,  999.0
2005/08/22 14:20,  999.0,   -0.6,   -2.6,   -3.6,   -4.6,   -5.4,   -6.2,   -4.6,   -5.2,   -5.8,   -6.3,   -5.0,   -6.2,   -6.2,   -8.4,   -7.1,   -6.1,   -7.0,   -6.7,   -7.0,   -6.9,   -6.7,   -6.3,   -7.6,   -5.4,   -4.9,   -6.0,   -5.0,   -6.4,  999.0,  999.0,  999.0,  999.0,  999.0,  999.0,  999.0,  999.0,  -54.7,  -54.9,  -48.7,  -54.8,  999.0,  -55.2,  -55.0,  -46.9,  999.0,  999.0,  999.0,  999.0,  999.0,  999.0,  999.0,  999.0,  999.0,  999.0,  999.0,  999.0,  999.0,  999.0,  999.0,  999.0,  999.0,  999.0
2005/08/22 14:30,  999.0,   -1.5,   -1.6,   -1.2,   -2.7,   -5.4,   -4.5,   -5.4,   -4.7,   -5.9,   -6.3,   -6.5,   -6.0,   -6.6,   -5.5,   -4.3,   -6.2,   -6.6,   -6.3,   -6.0,   -7.3,   -7.1,   -7.5,   -8.7,   -8.6,   -8.2,   -8.7,  999.0,  999.0,  999.0,  999.0,  -31.7,  999.0,  999.0,  999.0,  999.0,  999.0,  999.0,  999.0,  -31.0,  999.0,  999.0,  999.0,  999.0,  999.0,  999.0,  999.0,  999.0,  999.0,  999.0,  999.0,  999.0,  999.0,  999.0,  999.0,  999.0,  999.0,  999.0,  999.0,  999.0,  999.0,  999.0,  999.0
2005/08/22 14:40,  999.0,   -1.2,   -1.2,   -1.9,   -2.5,   -3.2,   -3.7,   -4.2,   -5.4,   -6.6,   -6.7,   -6.4,   -6.3,   -6.2,   -5.6,   -5.5,   -5.3,   -6.2,   -5.8,   -5.5,   -5.8,   -5.3,   -5.7,   -6.3,   -5.8,   -5.6,  999.0,  999.0,  999.0,  999.0,  999.0,  999.0,  999.0,  999.0,  999.0,  999.0,  999.0,  -54.8,  -50.7,  -54.9,  999.0,  999.0,  -55.0,  -55.0,  -54.8,  999.0,  999.0,  999.0,  999.0,  999.0,  999.0,  999.0,  999.0,  999.0,  999.0,  999.0,  999.0,  999.0,  999.0,  999.0,  999.0,  999.0,  999.0
2005/08/22 14:50,  999.0,   -1.1,   -0.7,   -1.5,   -1.4,   -3.9,   -3.9,   -4.4,   -4.4,   -5.1,   -5.6,   -5.7,   -6.3,   -6.6,   -6.9,   -6.6,   -6.2,   -5.5,   -5.5,   -4.7,   -5.4,   -5.1,  999.0,   -6.0,  999.0,   -5.4,  999.0,  999.0,  999.0,  999.0,  999.0,  999.0,  999.0,  999.0,  999.0,  999.0,  -41.9,  999.0,  -46.1,  999.0,  999.0,  999.0,  999.0,  999.0,  999.0,  999.0,  999.0,  999.0,  999.0,  999.0,  999.0,  999.0,  999.0,  999.0,  999.0,  999.0,  999.0,  999.0,  999.0,  999.0,  999.0,  999.0,  999.0
2005/08/22 15:00,  999.0,  999.0,   -3.1,   -3.3,   -1.1,   -2.0,   -2.9,   -4.2,   -4.7,   -5.0,   -5.9,   -6.2,   -6.8,   -6.4,   -6.5,   -6.5,   -6.6,   -6.3,   -5.3,   -4.7,   -4.9,   -5.6,  999.0,   -4.1,  999.0,  999.0,  999.0,  999.0,  999.0,  999.0,  999.0,  999.0,  999.0,  999.0,  999.0,  999.0,  999.0,  999.0,  999.0,  999.0,  999.0,   -9.4,  999.0,  999.0,  999.0,  999.0,  999.0,  999.0,  999.0,  999.0,  999.0,  999.0,  999.0,  999.0,  999.0,  999.0,  999.0,  999.0,  999.0,  999.0,  999.0,  999.0,  999.0
2005/08/22 15:10,  999.0,   -1.5,   -0.9,   -1.4,   -2.7,   -2.9,   -4.6,   -4.0,   -4.9,   -4.5,   -5.2,  999.0,   -6.3,   -5.7,   -4.9,   -5.6,   -5.5,   -5.5,   -4.7,   -5.0,   -4.8,   -4.7,  999.0,   -5.5,  999.0,   -4.9,   -5.1,   -4.4,  999.0,   -5.5,  999.0,   -7.5,   -8.3,   -8.4,   -8.7,   -8.4,  999.0,   -9.6,  999.0,  999.0,  999.0,  999.0,  999.0,  999.0,  999.0,  999.0,  999.0,  999.0,  999.0,  999.0,  999.0,  999.0,  999.0,  999.0,  999.0,  999.0,  999.0,  999.0,  999.0,  999.0,  999.0,  999.0,  999.0
2005/08/22 15:20,  999.0,    0.6,   -2.7,   -1.9,   -3.0,   -3.2,   -3.5,   -3.9,   -5.2,   -6.7,   -7.1,   -8.5,  999.0,   -5.1,   -5.3,   -5.5,   -5.4,   -5.1,   -5.9,   -5.5,   -5.5,   -6.5,   -6.4,  999.0,  999.0,  999.0,   -6.0,  999.0,  999.0,   -6.5,  -31.1,  -23.4,  999.0,  -20.6,  999.0,  -31.3,   -9.0,  -32.8,  999.0,  999.0,  999.0,  999.0,  999.0,  999.0,  999.0,  999.0,  999.0,  999.0,  999.0,  999.0,  999.0,  999.0,  999.0,  999.0,  999.0,  999.0,  999.0,  999.0,  999.0,  999.0,  999.0,  999.0,  999.0
2005/08/22 15:30,  999.0,   -1.5,   -1.7,   -2.4,   -3.1,   -3.8,   -4.4,   -4.6,   -5.3,   -5.0,   -4.5,   -5.3,   -4.9,   -5.3,   -4.6,   -4.8,   -6.1,   -6.5,   -6.3,   -6.5,  999.0,   -5.8,  999.0,  999.0,  999.0,  999.0,  999.0,  999.0,  999.0,  -54.9,  -55.0,  -54.9,  -55.0,  -54.9,  -55.0,  -55.0,  -55.1,  -55.1,  -55.1,  -55.0,  -54.8,  999.0,  -55.0,  -54.6,  999.0,  999.0,  999.0,  999.0,  999.0,  999.0,  999.0,  999.0,  999.0,  999.0,  999.0,  999.0,  999.0,  999.0,  999.0,  999.0,  999.0,  999.0,  999.0
2005/08/22 15:40,  999.0,   -0.5,   -0.6,   -3.1,   -3.1,   -4.4,   -3.8,   -5.0,   -5.5,   -5.0,   -3.5,   -5.2,   -5.1,   -5.6,   -5.3,   -6.1,   -6.8,   -6.8,   -6.9,   -8.0,   -8.3,  999.0,  999.0,  999.0,  999.0,  999.0,  999.0,  999.0,  -55.0,  -55.1,  -55.0,  -55.1,  -55.0,  -55.0,  -54.9,  999.0,  -55.0,  -55.0,  -55.0,  -55.0,  -55.1,  999.0,  999.0,  999.0,  999.0,  -55.3,  999.0,  999.0,  999.0,  999.0,  999.0,  999.0,  999.0,  999.0,  999.0,  999.0,  999.0,  999.0,  999.0,  999.0,  999.0,  999.0,  999.0
2005/08/22 15:50,  999.0,   -1.2,   -1.5,   -3.6,   -3.0,   -4.0,   -5.1,   -5.8,   -5.7,   -5.2,   -3.7,   -5.0,   -4.7,   -5.3,   -5.2,   -6.4,   -7.6,   -7.5,   -8.3,   -9.3,   -7.7,  999.0,  999.0,  999.0,  999.0,  999.0,  999.0,  999.0,  999.0,  -55.0,  -54.9,  -54.9,  -55.0,  -55.1,  -55.2,  -55.0,  -55.1,  -55.1,  -55.1,  -54.6,  -55.2,  -41.0,  999.0,  999.0,  999.0,  999.0,  999.0,  999.0,  999.0,  999.0,  999.0,  999.0,  999.0,  999.0,  999.0,  999.0,  999.0,  999.0,  999.0,  999.0,  999.0,  999.0,  999.0
2005/08/22 16:00,  999.0,  999.0,   -1.5,   -1.8,   -3.2,   -4.7,   -5.0,   -4.8,   -5.1,   -5.4,   -6.0,   -6.5,   -5.3,   -5.0,   -5.7,   -6.7,   -7.1,   -7.5,   -6.5,   -6.5,   -6.8,  999.0,  999.0,  999.0,  999.0,  999.0,  999.0,  999.0,  -54.9,  -54.9,  -55.0,  -54.9,  -54.9,  -55.0,  -55.0,  -54.9,  -55.0,  -54.9,  -55.0,  -55.1,  999.0,  -55.1,  -55.8,  999.0,  -55.0,  -55.5,  999.0,  999.0,  999.0,  999.0,  999.0,  999.0,  999.0,  999.0,  999.0,  999.0,  999.0,  999.0,  999.0,  999.0,  999.0,  999.0,  999.0
2005/08/22 16:10,  999.0,   -1.5,   -1.4,   -1.8,   -2.9,   -3.4,   -4.8,   -5.5,   -5.3,   -5.8,   -5.7,   -5.5,   -5.9,   -5.8,   -6.2,   -6.2,   -6.9,   -7.1,   -7.1,   -6.3,   -6.6,   -5.8,  999.0,  999.0,  999.0,  999.0,  999.0,  999.0,  999.0,  999.0,  -54.9,  -55.0,  999.0,  999.0,  999.0,  999.0,  999.0,  999.0,  999.0,  999.0,  999.0,  999.0,  999.0,  999.0,  999.0,  999.0,  999.0,  999.0,  999.0,  999.0,  999.0,  999.0,  999.0,  999.0,  999.0,  999.0,  999.0,  999.0,  999.0,  999.0,  999.0,  999.0,  999.0
2005/08/22 16:20,  999.0,   -2.5,   -0.5,   -2.2,   -3.8,   -3.6,   -4.8,   -5.3,   -4.9,   -4.9,   -4.8,   -5.2,   -5.6,   -5.5,   -5.3,   -5.9,   -6.5,   -6.6,   -6.4,   -5.9,   -6.0,   -6.2,  999.0,   -6.6,  999.0,  999.0,  999.0,  999.0,  999.0,  999.0,  999.0,  999.0,  999.0,  -54.9,  -55.0,  -54.8,  999.0,  -54.9,  999.0,  -41.2,  -33.7,  -27.5,  -36.6,  -27.3,  -36.6,  999.0,  999.0,  999.0,  999.0,  999.0,  999.0,  999.0,  999.0,  999.0,  999.0,  999.0,  999.0,  999.0,  999.0,  999.0,  999.0,  999.0,  999.0
2005/08/22 16:30,  999.0,   -1.0,   -2.2,   -2.1,   -3.7,   -4.1,   -5.4,   -5.2,   -4.9,   -4.8,   -4.7,   -4.9,  999.0,   -5.3,   -4.4,   -5.5,  999.0,   -6.0,   -5.6,   -4.9,   -5.6,   -5.5,  999.0,  999.0,  999.0,  999.0,  999.0,  999.0,  -30.1,  999.0,  -27.4,  999.0,  999.0,  -27.5,  -41.3,  -36.6,  999.0,  -41.4,  -41.3,  -55.1,  999.0,  999.0,  999.0,  -41.4,  999.0,  999.0,  999.0,  999.0,  999.0,  999.0,  999.0,  999.0,  999.0,  999.0,  999.0,  999.0,  999.0,  999.0,  999.0,  999.0,  999.0,  999.0,  999.0
2005/08/22 16:40,  999.0,   -0.3,   -1.3,   -0.9,   -1.5,   -4.1,   -4.7,   -5.7,   -6.2,   -6.2,   -5.2,   -5.3,  999.0,  999.0,   -5.7,   -6.4,   -6.9,   -7.1,   -6.5,   -6.5,   -6.4,   -6.2,   -6.6,  999.0,  999.0,  999.0,  -29.7,  -29.3,  -21.9,  -30.0,  999.0,  999.0,  999.0,  999.0,  -41.4,  -45.8,  999.0,  -41.3,  -54.9,  -45.7,  999.0,  999.0,  -54.9,  -36.4,  999.0,  999.0,  999.0,  999.0,  999.0,  999.0,  999.0,  999.0,  999.0,  999.0,  999.0,  999.0,  999.0,  999.0,  999.0,  999.0,  999.0,  999.0,  999.0
2005/08/22 16:50,  999.0,  999.0,  999.0,  999.0,   -0.1,   -2.6,   -3.4,   -4.9,   -5.9,   -5.6,   -5.4,   -5.7,  999.0,   -6.6,  999.0,  999.0,  999.0,   -6.7,   -6.2,   -5.5,   -5.9,   -5.5,   -5.7,   -6.4,  999.0,  999.0,  999.0,  999.0,  -30.0,  999.0,  999.0,  999.0,  999.0,  999.0,  999.0,  999.0,  999.0,  999.0,  999.0,  999.0,  999.0,  999.0,  999.0,  999.0,  999.0,  999.0,  999.0,  999.0,  999.0,  999.0,  999.0,  999.0,  999.0,  999.0,  999.0,  999.0,  999.0,  999.0,  999.0,  999.0,  999.0,  999.0,  999.0
2005/08/22 17:00,  999.0,   -1.0,   -0.5,   -2.1,   -1.8,   -2.8,   -4.2,   -5.2,   -5.8,   -5.9,   -5.2,   -5.7,   -6.4,   -6.1,   -5.7,   -5.8,   -6.4,   -6.4,   -5.5,   -5.5,   -5.1,  999.0,   -5.9,   -6.4,  999.0,  999.0,  999.0,  -30.0,  999.0,  999.0,  999.0,  999.0,  999.0,  999.0,  999.0,  999.0,  999.0,  999.0,  999.0,  999.0,  999.0,  999.0,  999.0,  999.0,  999.0,  999.0,  999.0,  999.0,  999.0,  999.0,  999.0,  999.0,  999.0,  999.0,  999.0,  999.0,  999.0,  999.0,  999.0,  999.0,  999.0,  999.0,  999.0
2005/08/22 17:10,  999.0,   -0.3,   -0.8,   -1.6,   -1.8,   -3.1,   -4.1,   -4.6,   -5.3,   -5.7,   -5.4,   -5.4,   -5.5,   -5.2,   -5.3,   -5.5,   -6.5,   -5.8,   -5.2,   -5.4,   -5.7,   -5.6,   -6.6,  999.0,   -7.3,   -7.3,  999.0,  999.0,  999.0,  999.0,  999.0,  999.0,  999.0,  999.0,  999.0,  999.0,  999.0,  999.0,  999.0,  999.0,  999.0,  999.0,  999.0,  999.0,  999.0,  999.0,  999.0,  999.0,  999.0,  999.0,  999.0,  999.0,  999.0,  999.0,  999.0,  999.0,  999.0,  999.0,  999.0,  999.0,  999.0,  999.0,  999.0
2005/08/22 17:20,  999.0,   -0.8,   -1.0,   -1.5,   -2.0,   -2.8,   -3.7,   -4.5,   -5.0,   -5.3,   -5.1,   -5.4,   -5.4,   -5.2,   -5.4,   -5.1,   -6.3,   -5.2,   -5.1,   -5.1,   -4.9,   -5.5,   -6.1,   -6.3,   -6.8,   -6.9,   -7.1,  999.0,   -7.9,  999.0,  999.0,  999.0,  999.0,  999.0,  -29.7,  999.0,  999.0,  -29.9,  -29.3,  999.0,  999.0,  -31.6,  -31.5,  -31.6,  999.0,  999.0,  999.0,  999.0,  999.0,  999.0,  999.0,  999.0,  999.0,  999.0,  999.0,  999.0,  999.0,  999.0,  999.0,  999.0,  999.0,  999.0,  999.0
2005/08/22 17:30,  999.0,   -0.8,   -1.1,   -1.2,   -2.8,   -3.6,   -4.3,   -4.9,   -5.7,  999.0,   -5.5,   -5.8,   -6.4,   -6.1,   -5.7,   -6.0,   -6.3,  999.0,   -4.9,  999.0,   -5.9,   -5.7,   -6.6,   -6.6,   -7.2,   -7.6,   -7.5,   -7.8,   -8.4,   -8.1,  999.0,  999.0,  999.0,  999.0,  999.0,  999.0,  999.0,  999.0,  999.0,  999.0,  999.0,  -31.4,  -32.3,  -32.2,  999.0,  999.0,  999.0,  999.0,  999.0,  999.0,  999.0,  999.0,  999.0,  999.0,  999.0,  999.0,  999.0,  999.0,  999.0,  999.0,  999.0,  999.0,  999.0
2005/08/22 17:40,  999.0,   -1.5,   -1.9,   -2.4,   -2.5,   -3.6,   -4.4,   -5.1,   -5.7,   -5.5,   -5.3,   -5.7,   -6.4,   -4.9,   -5.2,   -5.2,   -5.1,   -5.3,   -5.4,   -5.6,   -5.4,   -5.6,   -6.0,  999.0,   -6.9,   -7.2,   -7.1,   -7.6,   -8.1,   -8.0,   -8.2,  999.0,  999.0,  999.0,  999.0,  999.0,  999.0,  999.0,  999.0,  999.0,  999.0,  999.0,  999.0,  999.0,  999.0,  999.0,  999.0,  999.0,  999.0,  999.0,  999.0,  999.0,  999.0,  999.0,  999.0,  999.0,  999.0,  999.0,  999.0,  999.0,  999.0,  999.0,  999.0
2005/08/22 17:50,  999.0,   -1.5,   -2.6,   -3.2,   -3.3,   -3.6,   -4.2,   -4.8,   -4.9,   -5.3,   -5.1,   -5.6,   -5.7,   -5.2,   -4.8,   -5.0,   -5.9,   -5.4,   -5.7,   -5.7,   -5.4,   -5.4,   -6.0,   -6.9,   -7.3,   -7.5,   -7.6,   -7.7,   -8.0,   -7.9,   -7.9,  999.0,  999.0,  999.0,  999.0,  999.0,  999.0,  999.0,   -8.1,  999.0,  999.0,  999.0,  999.0,  999.0,  999.0,  999.0,  999.0,  999.0,  999.0,  999.0,  999.0,  999.0,  999.0,  999.0,  999.0,  999.0,  999.0,  999.0,  999.0,  999.0,  999.0,  999.0,  999.0
2005/08/22 18:00,  999.0,   -2.1,   -2.4,   -3.0,   -3.7,   -3.7,   -4.6,   -4.3,   -4.3,   -4.8,   -5.4,   -5.4,   -5.9,   -5.1,   -4.5,   -5.0,   -5.4,   -4.9,   -5.6,   -5.6,   -5.4,  999.0,   -6.2,   -7.2,   -7.6,   -7.2,   -7.4,   -7.6,   -7.4,  999.0,   -8.0,  999.0,  999.0,  999.0,  999.0,  999.0,  999.0,  999.0,  999.0,  999.0,  999.0,  999.0,  999.0,  999.0,    0.0,  999.0,  999.0,  999.0,  999.0,  999.0,  999.0,  999.0,  999.0,  999.0,  999.0,  999.0,  999.0,  999.0,  999.0,  999.0,  999.0,  999.0,  999.0
2005/08/22 18:10,  999.0,   -1.9,   -3.4,   -4.1,   -3.8,   -4.0,   -4.3,   -3.9,   -3.7,   -5.0,   -5.1,   -5.4,   -5.3,   -4.9,   -4.4,   -5.6,   -6.2,   -5.3,   -5.2,   -4.9,   -5.5,   -6.2,   -6.0,   -6.8,   -7.4,   -7.2,   -7.5,  999.0,  999.0,  999.0,  999.0,  999.0,  999.0,  999.0,  999.0,  999.0,  999.0,  999.0,  -27.9,  -27.6,  999.0,  -27.8,    0.1,   -0.1,   -5.5,  -11.2,  999.0,   -0.0,  -18.3,  999.0,  999.0,  999.0,  999.0,  999.0,  999.0,  999.0,  999.0,  999.0,  999.0,  999.0,  999.0,  999.0,  999.0
2005/08/22 18:20,  999.0,   -1.9,   -2.7,   -4.3,   -3.9,   -4.4,   -4.0,   -3.2,   -3.6,   -4.3,   -4.9,   -4.6,   -5.2,   -4.6,  999.0,   -4.6,   -4.8,   -4.9,   -4.9,   -5.0,  999.0,   -5.4,  999.0,   -7.1,   -7.4,   -7.1,   -6.4,   -7.4,  999.0,  999.0,  999.0,  999.0,  999.0,  999.0,  999.0,  999.0,  999.0,  999.0,  999.0,  999.0,  999.0,  -55.5,  -55.2,  999.0,  999.0,  999.0,  999.0,  999.0,  999.0,  999.0,  999.0,  999.0,  999.0,  999.0,  999.0,  999.0,  999.0,  999.0,  999.0,  999.0,  999.0,  999.0,  999.0
2005/08/22 18:30,  999.0,   -2.5,   -3.6,   -4.3,   -3.9,   -4.2,   -4.2,   -4.1,   -4.4,   -4.4,   -4.5,   -4.9,   -5.6,  999.0,  999.0,   -5.3,  999.0,   -5.0,   -5.0,   -4.8,  999.0,   -5.1,   -6.0,   -6.6,   -6.8,   -6.9,   -7.5,   -7.3,   -7.9,  999.0,  999.0,  999.0,  999.0,  999.0,  999.0,  999.0,  999.0,  999.0,  999.0,  999.0,  999.0,  -55.2,  -55.2,  -55.0,  999.0,  999.0,  999.0,  999.0,  999.0,  999.0,  999.0,  999.0,  999.0,  999.0,  999.0,  999.0,  999.0,  999.0,  999.0,  999.0,  999.0,  999.0,  999.0
2005/08/22 18:40,  999.0,   -1.7,   -3.9,   -4.4,   -4.1,   -4.2,   -4.3,   -4.7,   -4.1,   -4.4,   -4.7,   -4.9,   -5.3,   -5.0,  999.0,   -5.9,   -6.2,   -5.7,   -5.3,   -5.2,  999.0,   -6.4,   -6.0,   -7.1,   -7.4,   -7.6,   -8.3,   -7.4,  999.0,  999.0,  999.0,  999.0,  999.0,  999.0,  999.0,  999.0,  999.0,  999.0,  999.0,  999.0,  999.0,  999.0,  999.0,  999.0,  999.0,  999.0,  999.0,  999.0,  999.0,  999.0,  999.0,  999.0,  999.0,  999.0,  999.0,  999.0,  999.0,  999.0,  999.0,  999.0,  999.0,  999.0,  999.0
2005/08/22 18:50,  999.0,   -3.1,   -4.3,   -4.9,   -4.6,   -4.8,   -4.3,   -4.5,   -4.3,   -4.5,   -4.7,   -4.9,   -5.4,  999.0,   -5.2,   -6.0,   -6.0,   -5.9,   -5.9,   -5.5,   -5.5,  999.0,  999.0,   -6.3,   -6.5,  999.0,  999.0,  999.0,  999.0,  999.0,  999.0,  999.0,  999.0,  999.0,  999.0,  999.0,  999.0,  999.0,  999.0,  999.0,  999.0,  999.0,  999.0,  999.0,  999.0,  999.0,  999.0,  999.0,  999.0,  999.0,  999.0,  999.0,  999.0,  999.0,  999.0,  999.0,  999.0,  999.0,  999.0,  999.0,  999.0,  999.0,  999.0
2005/08/22 19:00,  999.0,   -3.3,   -5.0,   -5.3,   -4.7,   -5.0,   -4.5,  999.0,   -4.1,   -4.6,   -4.6,   -5.0,   -5.6,  999.0,   -4.5,   -5.6,  999.0,   -5.5,  999.0,  999.0,  999.0,  999.0,  999.0,  999.0,  999.0,  999.0,  999.0,  999.0,  999.0,  999.0,  999.0,  999.0,  999.0,  999.0,  999.0,  999.0,  999.0,  999.0,  999.0,  999.0,  999.0,  999.0,  999.0,  999.0,  999.0,  999.0,  999.0,  999.0,  999.0,  999.0,  999.0,  999.0,  999.0,  999.0,  999.0,  999.0,  999.0,  999.0,  999.0,  999.0,  999.0,  999.0,  999.0
2005/08/22 19:10,  999.0,   -3.6,   -4.8,   -5.1,   -4.7,   -4.6,  999.0,   -3.4,   -3.7,   -4.4,   -4.7,   -5.1,   -5.5,   -5.3,   -5.4,   -5.8,   -5.9,   -5.6,   -4.9,  999.0,  999.0,  999.0,  999.0,  999.0,  999.0,  999.0,  999.0,  999.0,    0.0,   -0.1,    0.3,   -0.1,    0.0,   -0.0,    0.1,   -0.1,   -0.0,   -0.0,    0.2,  999.0,  999.0,  999.0,  999.0,  999.0,  999.0,  999.0,  999.0,  999.0,  999.0,  999.0,  999.0,  999.0,  999.0,  999.0,  999.0,  999.0,  999.0,  999.0,  999.0,  999.0,  999.0,  999.0,  999.0
2005/08/22 19:20,  999.0,   -3.6,   -5.1,   -5.3,   -4.7,   -3.7,   -4.1,   -4.4,   -4.4,   -4.3,   -4.4,   -4.8,   -4.0,   -4.7,   -5.0,   -5.2,   -5.7,   -5.8,   -5.5,   -5.4,   -5.0,   -5.8,  999.0,  999.0,  999.0,  999.0,  999.0,  999.0,  999.0,  999.0,  999.0,  999.0,  999.0,  -36.8,  -27.6,  -55.2,  -41.3,  -36.8,  -41.4,  -55.2,  -55.2,  -55.4,  -55.2,  999.0,  -55.3,  -55.3,  999.0,  999.0,  999.0,  -54.8,  999.0,  999.0,  999.0,  999.0,  999.0,  999.0,  999.0,  999.0,  999.0,  999.0,  999.0,  999.0,  999.0
2005/08/22 19:30,  999.0,   -3.6,   -5.1,   -5.4,   -5.3,   -4.7,   -4.5,   -4.3,   -4.1,   -4.9,  999.0,  999.0,  999.0,   -5.1,   -4.9,   -5.6,   -5.5,   -6.4,   -5.5,  999.0,  999.0,  999.0,  999.0,  999.0,  999.0,  999.0,  999.0,  999.0,  999.0,  999.0,  999.0,  999.0,  999.0,  -55.0,  -55.2,  -55.1,  -55.2,  -55.1,  -55.2,  -55.1,  -55.2,  -55.1,  -55.2,  -55.2,  -55.2,  999.0,  -55.4,  999.0,  999.0,  999.0,  999.0,  999.0,  999.0,  999.0,  999.0,  999.0,  999.0,  999.0,  999.0,  999.0,  999.0,  999.0,  999.0
2005/08/22 19:40,  999.0,   -3.9,   -5.0,   -5.3,   -5.4,   -4.8,   -4.4,   -4.5,   -4.5,   -4.7,   -4.5,   -5.6,   -5.9,   -5.0,   -5.0,   -5.7,   -5.8,   -6.2,   -6.0,   -6.3,  999.0,  999.0,  999.0,  999.0,  999.0,  999.0,  999.0,  999.0,  999.0,  999.0,  999.0,  999.0,    0.1,   -9.1,   -9.0,  -27.4,   -9.3,  -27.5,  -18.1,  -27.6,  -18.3,  -13.8,  999.0,  -18.3,    0.3,    0.1,  999.0,  999.0,  999.0,  999.0,  999.0,  999.0,  999.0,  999.0,  999.0,  999.0,  999.0,  999.0,  999.0,  999.0,  999.0,  999.0,  999.0
2005/08/22 19:50,  999.0,   -3.6,   -4.9,   -5.4,   -5.0,   -5.0,   -4.6,   -4.4,   -4.4,   -4.5,   -4.6,   -5.0,   -4.4,   -4.9,   -5.5,   -5.8,   -6.6,   -7.0,  999.0,  999.0,  999.0,  999.0,  999.0,  999.0,  999.0,  999.0,  999.0,  999.0,  999.0,  999.0,  999.0,   -0.1,  999.0,  999.0,  999.0,   -0.1,    0.0,    0.0,   -0.2,  999.0,    0.2,    0.2,   -0.0,  999.0,  999.0,    0.1,  999.0,  999.0,  999.0,  999.0,  999.0,  999.0,  999.0,  999.0,  999.0,  999.0,  999.0,  999.0,  999.0,  999.0,  999.0,  999.0,  999.0
2005/08/22 20:00,  999.0,   -3.5,   -4.3,   -5.0,   -5.0,   -4.9,   -3.7,   -3.0,   -4.2,   -4.6,   -4.3,   -4.8,   -4.3,   -4.5,   -4.8,   -5.2,   -5.6,   -5.7,  999.0,  999.0,  999.0,  999.0,  999.0,  999.0,  999.0,  999.0,  999.0,  999.0,  999.0,   -0.0,    0.0,   -0.0,    0.0,   -0.0,    0.0,    0.0,    0.0,    0.1,    0.1,   -0.0,    0.1,    0.1,   -0.1,    0.1,  999.0,  999.0,  999.0,  999.0,  999.0,  999.0,  999.0,  999.0,  999.0,  999.0,  999.0,  999.0,  999.0,  999.0,  999.0,  999.0,  999.0,  999.0,  999.0
2005/08/22 20:10,  999.0,   -3.4,   -4.2,   -5.0,   -5.0,   -4.8,   -4.8,   -4.8,   -4.8,   -4.4,   -4.6,   -4.5,   -4.1,   -4.3,   -4.7,   -5.5,  999.0,  999.0,  999.0,  999.0,  999.0,  999.0,  999.0,  999.0,  999.0,  999.0,  999.0,  999.0,  999.0,  999.0,  -18.4,  -18.4,  -18.5,  999.0,   -0.1,  999.0,   -0.1,  999.0,    0.3,   -0.3,   -0.0,  999.0,  999.0,  999.0,  999.0,  999.0,  999.0,  999.0,  999.0,  999.0,  999.0,  999.0,  999.0,  999.0,  999.0,  999.0,  999.0,  999.0,  999.0,  999.0,  999.0,  999.0,  999.0
2005/08/22 20:20,  999.0,   -2.0,  999.0,   -5.0,   -4.7,   -4.7,   -4.6,   -4.5,   -4.5,   -4.1,   -4.2,  999.0,   -4.7,   -6.3,   -7.0,   -5.6,  999.0,  999.0,  999.0,  999.0,  999.0,  999.0,  999.0,  999.0,  999.0,  -55.1,  -55.1,  -55.1,  -55.1,  -55.1,  -50.2,  -55.2,  -55.1,  999.0,  -42.1,  999.0,  -55.1,  -55.2,  -49.7,  -55.1,  -55.3,  -55.3,  -55.3,  -41.6,  999.0,  -55.5,  -55.3,  999.0,  999.0,  999.0,  999.0,  999.0,  999.0,  999.0,  999.0,  999.0,  999.0,  999.0,  999.0,  999.0,  999.0,  999.0,  999.0
2005/08/22 20:30,  999.0,   -2.8,   -4.4,   -5.1,   -5.0,   -4.9,   -4.7,   -4.3,   -4.1,   -3.6,   -3.7,   -3.7,   -3.8,   -4.0,   -5.1,   -2.3,  999.0,  999.0,  999.0,  999.0,  999.0,  999.0,  999.0,  999.0,  999.0,  999.0,  999.0,  999.0,  -55.1,  -55.0,  -55.1,  -55.1,  -55.1,  999.0,  999.0,   -4.1,  -27.5,  -27.6,  -27.6,  -27.7,  -18.4,  -27.6,   -9.3,  -20.9,   -0.5,  -27.7,  -13.7,  -27.8,  999.0,  999.0,  999.0,  999.0,  999.0,  999.0,  999.0,  999.0,  999.0,  999.0,  999.0,  999.0,  999.0,  999.0,  999.0
2005/08/22 20:40,  999.0,   -3.8,   -4.4,   -5.1,   -4.5,   -4.6,   -4.7,   -4.5,   -4.5,   -3.8,   -2.7,   -3.6,   -3.7,   -5.2,   -5.7,   -6.6,   -6.5,   -6.5,   -7.1,   -7.7,  999.0,   -8.2,   -8.2,   -8.2,   -8.1,   -3.2,  999.0,  999.0,  999.0,   -8.2,  999.0,  999.0,  999.0,  999.0,  -36.9,  -55.1,  -55.2,  -55.1,  -55.3,  -55.3,  -55.2,  -55.5,  -55.5,  999.0,  999.0,  999.0,  999.0,  999.0,  999.0,  999.0,  -31.1,  999.0,  999.0,  999.0,  999.0,  999.0,  999.0,  999.0,  999.0,  999.0,  999.0,  999.0,  999.0
2005/08/22 20:50,  999.0,  999.0,   -5.2,   -5.8,   -4.9,   -4.3,   -4.6,   -3.9,   -3.7,   -3.8,   -2.7,  999.0,  999.0,   -4.3,   -4.4,  999.0,   -6.7,  999.0,  999.0,  999.0,  999.0,  999.0,  999.0,  999.0,  999.0,    2.9,    7.1,    4.4,    8.9,  999.0,  999.0,  999.0,  999.0,  -13.8,  999.0,  -27.5,  -18.4,  -13.7,  -18.4,  -20.6,  -13.8,  -20.7,   -9.1,    0.1,  -27.7,  -27.6,  -18.4,    0.1,  999.0,  999.0,  999.0,  999.0,  999.0,  999.0,  999.0,  999.0,  999.0,  999.0,  999.0,  999.0,  999.0,  999.0,  999.0
2005/08/22 21:00,  999.0,   -3.6,   -3.7,   -4.7,   -4.2,   -4.7,   -4.0,  999.0,   -3.7,   -3.8,   -2.8,   -3.5,   -4.0,   -3.7,   -4.4,   -4.6,   -6.1,   -5.8,   -6.6,  999.0,  999.0,  999.0,   -8.2,  999.0,   -7.9,   -8.4,  999.0,  999.0,  999.0,  999.0,  999.0,  999.0,  999.0,  999.0,  999.0,  999.0,  -48.3,  -46.1,  -48.3,  -27.5,  -48.4,  -41.5,  -46.1,  -41.4,  -55.2,  -27.5,  999.0,  999.0,  999.0,  999.0,  999.0,  999.0,  999.0,  999.0,  999.0,  999.0,  999.0,  999.0,  999.0,  999.0,  999.0,  999.0,  999.0
2005/08/22 21:10,  999.0,   -3.1,  999.0,   -4.4,   -4.2,   -4.6,   -4.5,   -3.9,   -3.8,   -3.8,   -3.9,   -3.8,   -4.6,   -4.7,   -5.0,   -5.3,   -5.8,   -5.9,  999.0,  999.0,  999.0,  999.0,  999.0,  999.0,  -55.1,  -55.1,  -55.1,  -55.1,  -55.1,  -55.1,  -55.1,  -55.1,  -55.1,  -55.1,  -55.1,  -55.1,  -55.1,  -55.1,  -55.1,  -55.2,  -55.1,  -55.2,  -55.2,  -55.0,  -55.2,  -55.1,  -55.2,  -55.3,  999.0,  999.0,  999.0,  999.0,  999.0,  999.0,  999.0,  999.0,  999.0,  999.0,  999.0,  999.0,  999.0,  999.0,  999.0
2005/08/22 21:20,  999.0,   -3.1,   -4.3,   -4.5,   -4.2,   -4.9,   -5.1,   -4.2,   -4.2,   -3.8,   -3.3,   -3.6,   -4.6,   -5.2,   -4.7,   -4.9,  999.0,   -6.8,  999.0,  999.0,  999.0,  999.0,  999.0,  999.0,  999.0,  999.0,  999.0,  999.0,  999.0,  999.0,  999.0,  999.0,  999.0,  -55.1,  -55.1,  -55.2,  -55.2,  -55.2,  -55.2,  -55.4,  -55.3,  -55.1,  -55.1,  999.0,  999.0,  -55.5,  999.0,  999.0,  999.0,  999.0,  999.0,  999.0,  999.0,  999.0,  999.0,  999.0,  999.0,  999.0,  999.0,  999.0,  999.0,  999.0,  999.0
2005/08/22 21:30,  999.0,   -3.2,   -4.3,   -5.0,   -4.8,   -5.0,  999.0,   -4.5,   -3.6,   -3.2,   -3.7,   -3.5,   -4.6,   -4.4,   -4.9,   -4.8,   -5.6,   -5.4,  999.0,  999.0,  999.0,  999.0,   -7.4,  999.0,   -7.7,  999.0,   -8.0,  999.0,  999.0,  999.0,  999.0,  999.0,  999.0,  999.0,  999.0,  999.0,  999.0,  999.0,  999.0,  -32.4,  999.0,  999.0,  999.0,  999.0,  999.0,  -14.1,  -13.3,  -14.0,  999.0,  999.0,  999.0,   -9.5,   -8.7,  999.0,  999.0,   -7.4,  999.0,  999.0,   -8.0,  999.0,  999.0,  999.0,  999.0
2005/08/22 21:40,  999.0,   -3.2,   -4.4,   -4.6,   -4.5,   -4.9,   -5.6,   -4.3,   -3.6,   -4.1,  999.0,   -3.1,   -4.7,   -4.3,   -4.7,   -5.3,   -6.3,   -6.5,  999.0,  999.0,  999.0,  999.0,  999.0,  999.0,  999.0,  999.0,  999.0,  999.0,  999.0,  -31.0,  -31.3,  999.0,  -31.3,  999.0,  999.0,  999.0,  -29.7,  999.0,  999.0,  -31.6,  -32.4,  -32.5,  -32.6,  -32.5,  -32.5,  999.0,  999.0,  999.0,  999.0,  999.0,  999.0,  999.0,  999.0,  999.0,  999.0,  999.0,  999.0,  999.0,  999.0,  999.0,  999.0,  999.0,  999.0
2005/08/22 21:50,  999.0,   -3.2,   -4.7,   -5.0,   -4.4,   -4.9,   -4.8,   -3.7,   -3.7,   -4.1,   -4.1,   -3.2,   -3.6,   -4.1,   -4.7,   -5.7,   -5.9,   -6.2,   -6.5,   -7.7,   -8.2,   -7.7,   -7.5,   -7.8,   -8.2,  999.0,   -8.7,  -16.5,  999.0,  -16.1,  -23.2,  999.0,  -31.5,  999.0,  999.0,  -19.1,  -18.8,  -16.3,  -20.5,  -20.2,  -20.8,  -18.8,  -18.8,  -18.8,  -19.1,  -19.3,  -16.5,  -19.6,  999.0,  999.0,  999.0,  999.0,  999.0,  999.0,  999.0,  999.0,  999.0,  999.0,  999.0,  999.0,  999.0,  999.0,  999.0
2005/08/22 22:00,  999.0,   -3.7,   -5.2,   -5.0,   -4.6,   -4.5,   -4.2,   -3.2,   -3.4,   -3.7,  999.0,   -3.1,   -3.8,   -4.3,   -4.8,   -5.1,   -6.2,   -6.5,   -5.7,   -7.9,  999.0,   -7.5,   -7.5,   -8.2,  999.0,   -8.4,  999.0,  999.0,   -9.2,   -9.1,   -9.2,   -7.7,   -8.9,   -8.7,   -8.7,   -9.0,   -8.8,   -8.7,   -8.4,   -8.2,   -8.8,   -9.3,   -9.7,   -9.9,  -10.6,  -10.6,  -10.7,  -10.8,  999.0,  999.0,  999.0,  999.0,  999.0,  999.0,  999.0,  999.0,  999.0,  999.0,  999.0,  999.0,  999.0,  999.0,  999.0
2005/08/22 22:10,  999.0,   -2.6,   -5.6,   -5.0,   -4.5,   -4.6,   -4.2,   -3.5,   -3.4,  999.0,  999.0,   -3.1,   -4.5,   -5.3,   -5.5,   -4.9,   -5.5,   -7.6,   -7.4,   -7.8,  999.0,  999.0,   -7.3,   -7.6,  999.0,  999.0,  999.0,  999.0,  999.0,  999.0,   -7.1,   -5.5,   -8.1,   -7.6,   -8.4,   -8.4,   -7.9,   -7.9,   -8.3,   -8.4,   -8.8,   -9.2,  -10.0,  -10.3,  -10.9,  -10.3,  -10.5,   -9.9,  -11.5,  -11.1,  999.0,  999.0,  999.0,  999.0,  999.0,  999.0,  999.0,  999.0,  999.0,  999.0,  999.0,  999.0,  999.0
2005/08/22 22:20,  999.0,   -3.5,   -5.1,   -4.5,   -4.5,   -4.1,   -4.1,   -3.0,   -2.9,   -2.4,   -1.8,   -2.1,   -3.9,   -4.7,   -4.6,   -6.2,   -6.4,   -6.2,   -7.1,   -8.2,  999.0,  999.0,   -7.3,  999.0,  999.0,  999.0,  999.0,  999.0,   -8.6,   -8.3,   -8.1,   -8.4,   -8.5,   -8.0,   -8.0,   -8.0,   -8.0,   -8.1,   -8.3,   -8.7,   -8.9,   -9.4,  -10.5,  -11.4,  -11.8,  -11.4,  999.0,  999.0,  999.0,  999.0,  999.0,  999.0,  999.0,  999.0,  999.0,  999.0,  999.0,  999.0,  999.0,  999.0,  999.0,  999.0,  999.0
2005/08/22 22:30,  999.0,   -3.7,   -5.4,   -5.4,   -5.2,   -3.2,   -3.6,   -3.0,   -3.1,   -3.0,   -3.2,   -5.2,   -4.9,   -5.3,  999.0,   -6.5,  999.0,   -5.9,   -7.5,  999.0,  999.0,  999.0,   -8.2,   -7.8,   -7.4,   -8.6,   -9.0,   -9.1,   -8.6,   -8.7,  999.0,   -7.7,   -7.9,   -8.3,   -8.2,   -8.2,   -8.2,   -8.2,   -8.4,   -8.9,   -8.8,   -9.4,  -10.1,  -10.8,  999.0,  999.0,  999.0,  999.0,  999.0,  999.0,  999.0,  999.0,  999.0,  999.0,  999.0,  999.0,  999.0,  999.0,  999.0,  999.0,  999.0,  999.0,  999.0
2005/08/22 22:40,  999.0,   -8.0,   -4.4,   -3.6,   -1.9,   -5.0,   -2.1,   -2.5,   -4.1,   -0.3,   -3.4,   -7.8,   -5.1,   -7.2,   -5.2,   -3.1,   -9.1,  999.0,   -6.2,   -6.8,   -7.7,   -8.0,   -7.2,   -6.7,   -6.3,   -7.9,   -8.3,   -7.3,   -8.3,   -8.6,   -8.2,   -8.3,   -8.6,   -7.9,   -7.4,   -7.8,   -8.2,   -7.8,   -8.1,   -7.7,   -8.0,  999.0,  999.0,  999.0,  999.0,  999.0,  999.0,  999.0,  999.0,  999.0,  999.0,  999.0,  999.0,  999.0,  999.0,  999.0,  999.0,  999.0,  999.0,  999.0,  999.0,  999.0,  999.0
2005/08/22 22:50,  999.0,   -4.4,   -5.6,   -4.9,   -3.5,   -2.9,   -2.0,   -4.1,   -2.8,   -2.1,   -3.9,   -1.0,   -2.8,   -4.0,  999.0,   -8.9,   -6.1,   -5.9,  999.0,   -7.2,   -7.3,   -7.4,   -6.9,  -13.7,  -13.7,  -15.8,  999.0,  -16.5,  999.0,  -19.5,  -19.5,  -19.3,  -19.5,  -19.5,  -14.5,  -15.1,  999.0,  999.0,  999.0,  999.0,  999.0,  999.0,  999.0,  -55.1,  -55.1,  -55.3,  999.0,  -55.4,  -55.5,  999.0,  999.0,  999.0,  999.0,  999.0,  999.0,  999.0,  999.0,  999.0,  999.0,  -10.6,   -9.7,   -9.5,   -9.3
2005/08/22 23:00,  999.0,  999.0,   -3.1,   -3.6,   -3.4,   -2.7,   -2.1,   -2.5,   -1.1,  999.0,   -2.3,   -2.2,   -3.6,   -4.8,   -4.7,   -5.3,   -5.9,   -6.7,   -6.4,   -6.9,  999.0,  999.0,  999.0,  999.0,  999.0,  999.0,  999.0,  999.0,   -9.5,   -9.5,   -8.6,   -9.4,   -9.2,   -9.5,   -8.9,   -8.4,   -8.1,   -8.6,  999.0,  999.0,  999.0,  999.0,  999.0,  999.0,  999.0,  999.0,  999.0,  999.0,  999.0,  999.0,  999.0,  999.0,  999.0,  999.0,  999.0,   -9.6,  -10.1,  -10.8,  -10.8,  -10.5,  -10.3,   -9.9,   -9.6
2005/08/22 23:10,  999.0,   -1.8,   -4.5,   -3.4,   -2.7,   -0.9,  999.0,    0.2,  999.0,    0.7,    4.6,    0.8,  999.0,  999.0,  999.0,  999.0,  999.0,   -0.4,  999.0,  999.0,   -8.0,   -8.1,  999.0,   -7.8,   -7.3,   -7.2,   -8.1,   -9.2,   -9.0,   -8.5,   -8.0,   -8.0,   -8.2,   -8.4,   -8.5,   -8.2,   -8.2,   -8.4,   -8.1,   -7.0,  999.0,  999.0,  999.0,  999.0,  999.0,  999.0,  999.0,  999.0,  999.0,  999.0,  999.0,  999.0,  999.0,  999.0,  999.0,  999.0,  -10.1,  -10.2,  -10.0,  -10.2,  -10.8,  -10.1,  999.0
2005/08/22 23:20,  999.0,   -7.0,   -7.5,   -5.7,   -4.8,   -5.7,    0.0,   -4.0,   -3.1,    1.4,  999.0,  999.0,  999.0,  999.0,  999.0,  999.0,  999.0,  999.0,  999.0,   -7.7,   -8.7,   -8.6,   -8.2,   -8.0,   -8.0,   -7.9,   -8.7,   -9.4,   -8.7,   -8.8,   -8.8,   -8.7,   -8.6,   -8.4,   -7.9,   -8.2,   -7.7,  999.0,  999.0,  999.0,  999.0,  999.0,  999.0,  999.0,  999.0,  999.0,  999.0,  999.0,  999.0,  -10.1,  -10.3,   -9.0,   -8.3,   -8.8,   -8.6,   -9.8,  999.0,   -9.9,   -9.5,   -9.8,   -9.6,   -9.6,   -9.6
2005/08/22 23:30,  999.0,  999.0,   -7.3,   -5.2,   -3.9,   -4.6,  999.0,   -0.9,   -2.2,   -0.1,    4.9,  999.0,    1.0,  999.0,  999.0,  999.0,  999.0,  999.0,  999.0,  999.0,   -7.1,   -7.8,   -7.6,   -7.3,  999.0,  999.0,   -7.4,   -7.3,   -8.3,   -8.2,   -8.0,   -8.2,   -8.2,   -8.4,   -8.0,   -8.8,   -8.3,   -8.1,   -8.3,  999.0,  999.0,  999.0,  999.0,  -55.1,  -55.0,  -55.1,  -55.4,  999.0,  999.0,  999.0,  999.0,  999.0,  999.0,  999.0,  999.0,  999.0,  999.0,  999.0,  999.0,  999.0,  999.0,  999.0,  999.0
2005/08/22 23:40,  999.0,   -0.5,   -2.5,   -2.6,   -0.8,   -3.3,   -0.7,   -0.9,    1.9,  999.0,    5.6,  999.0,  999.0,  999.0,  999.0,   -4.3,   -5.8,   -7.1,   -3.4,  999.0,  999.0,  999.0,   -7.7,   -7.1,   -7.5,   -7.4,  999.0,  999.0,  999.0,   -7.8,   -7.8,   -8.1,   -8.6,   -8.0,   -9.2,  999.0,  999.0,  999.0,  999.0,  999.0,  999.0,  999.0,  -55.0,  -55.2,  -54.9,  999.0,  -55.7,  999.0,  999.0,  999.0,  999.0,  999.0,  999.0,  999.0,  999.0,  999.0,  999.0,  999.0,  999.0,  999.0,  999.0,  999.0,  999.0
2005/08/22 23:50,  999.0,   -2.0,   -2.3,   -3.4,   -1.9,   -1.2,   -0.8,   -1.5,   -3.0,  999.0,  999.0,  999.0,    0.3,  999.0,   -3.4,   -4.3,   -5.5,   -6.1,   -7.0,  999.0,  999.0,  999.0,   -7.1,   -7.1,   -7.1,   -7.1,   -7.7,   -8.0,   -7.7,   -8.2,   -8.5,   -8.4,   -7.8,   -8.4,  999.0,  999.0,  999.0,  999.0,  999.0,  999.0,  999.0,  999.0,  999.0,  999.0,  -38.7,  999.0,  999.0,  -22.0,  999.0,  999.0,  999.0,  999.0,  999.0,  999.0,  999.0,  999.0,  999.0,  999.0,  999.0,  999.0,  999.0,  999.0,  999.0
